Platte River (Nebraska), Grand Island (06770500)

StateNebraskaLatestUnknown (97 cfs)
RiverPlatte RiverRatingObservedEstimated
Updated2026-05-07 10:15 (48 minutes ago)Flood - The river is flooding. Obstacles can be treacherous or deadly. The river should be avoided at this stage for casual trips and definitely for the inexperienced. Trips should be attempted only with protective gear and equipment.Flood(none)(none)
Discharge97 cfs (median: 1340 cfs)High - The river is high and potentially dangerous, especially for the young and / or inexperienced. Normal stream obstacles are sometimes difficult to navigate. Extended distances can be attempted, but canoe travel may not be advisable.High(none)(none)
Height3.26 feetGood - Conditions are ideal for a canoe or kayak. Boats typically will drag on fewer than one-quarter of riffles, if at all, and portages are unnecessary or rare. Normal float lengths can be attempted without a problem.Good(none)(none)
TrendRising (falling over 24 hours)Low - River is low but can still be floated. Some riffles are okay but most come with significant dragging and might need a portage. Float lengths should be reduced to accommodate low flow, dragging, and portages.Low(none)(none)
USGSExternal icon USGS Site (External icon Duck Duck Go Maps)Poor - River is too low to float comfortably. Most or all riffles will drag or must be portaged and some obstacles (such as slick shelf rock) cause undue problems. Avoid the river at this stage for casual paddling trips.Poor(none)(none)

Trending Data

Plot Image

Trips for Platte River (Nebraska), Grand Island (06770500)

DateStartEndDistanceConditionDischargeHeightFishingDetails

A total of 0 rows are displayed.

Condition Descriptions

Fishing Conditions

Fish Species

Notes

Classic Trip List

The classic River Trips application is still available for use. It is updated with the new system using a data retrofit. It is no longer maintained. The original River Trips application is no longer updated (as of 1 Dec 2016) but can be checked for errors or for the condition of the data before it was converted to the new system.

Gauge Data Table

ObservationHeightDischargeMaximum
Discharge
Minimum
Discharge
Mean
Discharge
P05P10P20P25P50
(Median)
P75P80P90P95
2026-05-07 10:15 3.26 97 14000 (1984) 33 (1955) 2060 187 387 644 831 1340 2550 2990 4170 5890
2026-05-07 09:15 3.25 91 14000 (1984) 33 (1955) 2060 187 387 644 831 1340 2550 2990 4170 5890
2026-05-07 08:15 3.25 91 14000 (1984) 33 (1955) 2060 187 387 644 831 1340 2550 2990 4170 5890
2026-05-07 07:15 3.25 91 14000 (1984) 33 (1955) 2060 187 387 644 831 1340 2550 2990 4170 5890
2026-05-07 06:15 3.25 91 14000 (1984) 33 (1955) 2060 187 387 644 831 1340 2550 2990 4170 5890
2026-05-07 05:15 3.22 75 14000 (1984) 33 (1955) 2060 187 387 644 831 1340 2550 2990 4170 5890
2026-05-07 04:15 3.22 75 14000 (1984) 33 (1955) 2060 187 387 644 831 1340 2550 2990 4170 5890
2026-05-07 03:15 3.22 75 14000 (1984) 33 (1955) 2060 187 387 644 831 1340 2550 2990 4170 5890
2026-05-07 02:15 3.23 80 14000 (1984) 33 (1955) 2060 187 387 644 831 1340 2550 2990 4170 5890
2026-05-07 01:15 3.23 80 14000 (1984) 33 (1955) 2060 187 387 644 831 1340 2550 2990 4170 5890
2026-05-07 00:15 3.23 80 14000 (1984) 33 (1955) 2060 187 387 644 831 1340 2550 2990 4170 5890
2026-05-06 23:15 3.23 80 14000 (1984) 33 (1955) 2060 187 387 644 831 1340 2550 2990 4170 5890
2026-05-06 22:15 3.23 80 13300 (1984) 59 (1955) 2080 207 449 678 929 1380 2560 2670 4410 5980
2026-05-06 21:15 3.24 85 13300 (1984) 59 (1955) 2080 207 449 678 929 1380 2560 2670 4410 5980
2026-05-06 20:15 3.23 80 13300 (1984) 59 (1955) 2080 207 449 678 929 1380 2560 2670 4410 5980
2026-05-06 19:15 3.24 85 13300 (1984) 59 (1955) 2080 207 449 678 929 1380 2560 2670 4410 5980
2026-05-06 18:15 3.24 85 13300 (1984) 59 (1955) 2080 207 449 678 929 1380 2560 2670 4410 5980
2026-05-06 17:15 3.24 85 13300 (1984) 59 (1955) 2080 207 449 678 929 1380 2560 2670 4410 5980
2026-05-06 16:15 3.24 85 13300 (1984) 59 (1955) 2080 207 449 678 929 1380 2560 2670 4410 5980
2026-05-06 15:15 3.24 85 13300 (1984) 59 (1955) 2080 207 449 678 929 1380 2560 2670 4410 5980
2026-05-06 14:15 3.24 85 13300 (1984) 59 (1955) 2080 207 449 678 929 1380 2560 2670 4410 5980
2026-05-06 13:15 3.32 136 13300 (1984) 59 (1955) 2080 207 449 678 929 1380 2560 2670 4410 5980
2026-05-06 12:15 3.32 136 13300 (1984) 59 (1955) 2080 207 449 678 929 1380 2560 2670 4410 5980
2026-05-06 11:15 3.31 129 13300 (1984) 59 (1955) 2080 207 449 678 929 1380 2560 2670 4410 5980
2026-05-06 10:15 3.31 129 13300 (1984) 59 (1955) 2080 207 449 678 929 1380 2560 2670 4410 5980
2026-05-06 09:15 3.31 129 13300 (1984) 59 (1955) 2080 207 449 678 929 1380 2560 2670 4410 5980
2026-05-06 08:15 3.30 122 13300 (1984) 59 (1955) 2080 207 449 678 929 1380 2560 2670 4410 5980
2026-05-06 07:15 3.30 122 13300 (1984) 59 (1955) 2080 207 449 678 929 1380 2560 2670 4410 5980
2026-05-06 06:15 3.31 129 13300 (1984) 59 (1955) 2080 207 449 678 929 1380 2560 2670 4410 5980
2026-05-06 05:15 3.31 129 13300 (1984) 59 (1955) 2080 207 449 678 929 1380 2560 2670 4410 5980
2026-05-06 04:15 3.31 129 13300 (1984) 59 (1955) 2080 207 449 678 929 1380 2560 2670 4410 5980
2026-05-06 03:15 3.31 129 13300 (1984) 59 (1955) 2080 207 449 678 929 1380 2560 2670 4410 5980
2026-05-06 02:15 3.30 122 13300 (1984) 59 (1955) 2080 207 449 678 929 1380 2560 2670 4410 5980
2026-05-06 01:15 3.30 122 13300 (1984) 59 (1955) 2080 207 449 678 929 1380 2560 2670 4410 5980
2026-05-06 00:15 3.31 129 13300 (1984) 59 (1955) 2080 207 449 678 929 1380 2560 2670 4410 5980
2026-05-05 23:15 3.31 129 13300 (1984) 59 (1955) 2080 207 449 678 929 1380 2560 2670 4410 5980
2026-05-05 22:15 3.31 129 13400 (1942) 87 (1955) 2010 227 448 699 841 1310 2240 2690 4080 5850
2026-05-05 21:15 3.31 129 13400 (1942) 87 (1955) 2010 227 448 699 841 1310 2240 2690 4080 5850
2026-05-05 20:15 3.31 129 13400 (1942) 87 (1955) 2010 227 448 699 841 1310 2240 2690 4080 5850
2026-05-05 19:15 3.32 136 13400 (1942) 87 (1955) 2010 227 448 699 841 1310 2240 2690 4080 5850
2026-05-05 18:15 3.32 136 13400 (1942) 87 (1955) 2010 227 448 699 841 1310 2240 2690 4080 5850
2026-05-05 17:15 3.31 129 13400 (1942) 87 (1955) 2010 227 448 699 841 1310 2240 2690 4080 5850
2026-05-05 16:15 3.30 122 13400 (1942) 87 (1955) 2010 227 448 699 841 1310 2240 2690 4080 5850
2026-05-05 15:15 3.30 122 13400 (1942) 87 (1955) 2010 227 448 699 841 1310 2240 2690 4080 5850
2026-05-05 14:15 3.30 122 13400 (1942) 87 (1955) 2010 227 448 699 841 1310 2240 2690 4080 5850
2026-05-05 13:15 3.30 122 13400 (1942) 87 (1955) 2010 227 448 699 841 1310 2240 2690 4080 5850
2026-05-05 12:15 3.31 129 13400 (1942) 87 (1955) 2010 227 448 699 841 1310 2240 2690 4080 5850
2026-05-05 11:15 3.30 122 13400 (1942) 87 (1955) 2010 227 448 699 841 1310 2240 2690 4080 5850
2026-05-05 10:15 3.31 129 13400 (1942) 87 (1955) 2010 227 448 699 841 1310 2240 2690 4080 5850
2026-05-05 09:15 3.30 122 13400 (1942) 87 (1955) 2010 227 448 699 841 1310 2240 2690 4080 5850
2026-05-05 08:15 3.29 115 13400 (1942) 87 (1955) 2010 227 448 699 841 1310 2240 2690 4080 5850
2026-05-05 07:15 3.29 115 13400 (1942) 87 (1955) 2010 227 448 699 841 1310 2240 2690 4080 5850
2026-05-05 06:15 3.28 109 13400 (1942) 87 (1955) 2010 227 448 699 841 1310 2240 2690 4080 5850
2026-05-05 05:15 3.28 109 13400 (1942) 87 (1955) 2010 227 448 699 841 1310 2240 2690 4080 5850
2026-05-05 04:15 3.29 115 13400 (1942) 87 (1955) 2010 227 448 699 841 1310 2240 2690 4080 5850
2026-05-05 03:15 3.29 115 13400 (1942) 87 (1955) 2010 227 448 699 841 1310 2240 2690 4080 5850
2026-05-05 02:15 3.29 115 13400 (1942) 87 (1955) 2010 227 448 699 841 1310 2240 2690 4080 5850
2026-05-05 01:15 3.30 122 13400 (1942) 87 (1955) 2010 227 448 699 841 1310 2240 2690 4080 5850
2026-05-05 00:15 3.30 122 13400 (1942) 87 (1955) 2010 227 448 699 841 1310 2240 2690 4080 5850
2026-05-04 23:15 3.30 122 13400 (1942) 87 (1955) 2010 227 448 699 841 1310 2240 2690 4080 5850
2026-05-04 22:15 3.30 122 13400 (1984) 104 (1955) 1970 234 413 712 831 1450 2160 2480 3900 5850
2026-05-04 21:15 3.31 129 13400 (1984) 104 (1955) 1970 234 413 712 831 1450 2160 2480 3900 5850
2026-05-04 20:15 3.31 129 13400 (1984) 104 (1955) 1970 234 413 712 831 1450 2160 2480 3900 5850
2026-05-04 19:15 3.31 129 13400 (1984) 104 (1955) 1970 234 413 712 831 1450 2160 2480 3900 5850
2026-05-04 18:15 3.31 129 13400 (1984) 104 (1955) 1970 234 413 712 831 1450 2160 2480 3900 5850
2026-05-04 17:15 3.32 136 13400 (1984) 104 (1955) 1970 234 413 712 831 1450 2160 2480 3900 5850
2026-05-04 16:15 3.32 136 13400 (1984) 104 (1955) 1970 234 413 712 831 1450 2160 2480 3900 5850
2026-05-04 15:15 3.32 136 13400 (1984) 104 (1955) 1970 234 413 712 831 1450 2160 2480 3900 5850
2026-05-04 14:15 3.33 143 13400 (1984) 104 (1955) 1970 234 413 712 831 1450 2160 2480 3900 5850
2026-05-04 13:15 3.32 136 13400 (1984) 104 (1955) 1970 234 413 712 831 1450 2160 2480 3900 5850
2026-05-04 12:15 3.33 143 13400 (1984) 104 (1955) 1970 234 413 712 831 1450 2160 2480 3900 5850
2026-05-04 11:15 3.33 143 13400 (1984) 104 (1955) 1970 234 413 712 831 1450 2160 2480 3900 5850
2026-05-04 10:15 3.34 151 13400 (1984) 104 (1955) 1970 234 413 712 831 1450 2160 2480 3900 5850
2026-05-04 09:15 3.35 159 13400 (1984) 104 (1955) 1970 234 413 712 831 1450 2160 2480 3900 5850
2026-05-04 08:15 3.35 159 13400 (1984) 104 (1955) 1970 234 413 712 831 1450 2160 2480 3900 5850
2026-05-04 07:15 3.33 143 13400 (1984) 104 (1955) 1970 234 413 712 831 1450 2160 2480 3900 5850
2026-05-04 06:15 3.33 143 13400 (1984) 104 (1955) 1970 234 413 712 831 1450 2160 2480 3900 5850
2026-05-04 05:15 3.34 151 13400 (1984) 104 (1955) 1970 234 413 712 831 1450 2160 2480 3900 5850
2026-05-04 04:15 3.33 143 13400 (1984) 104 (1955) 1970 234 413 712 831 1450 2160 2480 3900 5850
2026-05-04 03:15 3.34 151 13400 (1984) 104 (1955) 1970 234 413 712 831 1450 2160 2480 3900 5850
2026-05-04 02:15 3.34 151 13400 (1984) 104 (1955) 1970 234 413 712 831 1450 2160 2480 3900 5850
2026-05-04 01:15 3.34 151 13400 (1984) 104 (1955) 1970 234 413 712 831 1450 2160 2480 3900 5850
2026-05-04 00:15 3.34 151 13400 (1984) 104 (1955) 1970 234 413 712 831 1450 2160 2480 3900 5850
2026-05-03 23:15 3.34 151 13400 (1984) 104 (1955) 1970 234 413 712 831 1450 2160 2480 3900 5850
2026-05-03 22:15 3.34 151 13500 (1984) 121 (2023) 1890 252 410 695 847 1410 2310 2430 3500 5730
2026-05-03 21:15 3.34 151 13500 (1984) 121 (2023) 1890 252 410 695 847 1410 2310 2430 3500 5730
2026-05-03 20:15 3.35 159 13500 (1984) 121 (2023) 1890 252 410 695 847 1410 2310 2430 3500 5730
2026-05-03 19:15 3.35 159 13500 (1984) 121 (2023) 1890 252 410 695 847 1410 2310 2430 3500 5730
2026-05-03 18:15 3.35 159 13500 (1984) 121 (2023) 1890 252 410 695 847 1410 2310 2430 3500 5730
2026-05-03 17:15 3.36 167 13500 (1984) 121 (2023) 1890 252 410 695 847 1410 2310 2430 3500 5730
2026-05-03 16:15 3.36 167 13500 (1984) 121 (2023) 1890 252 410 695 847 1410 2310 2430 3500 5730
2026-05-03 15:15 3.35 159 13500 (1984) 121 (2023) 1890 252 410 695 847 1410 2310 2430 3500 5730
2026-05-03 14:15 3.35 159 13500 (1984) 121 (2023) 1890 252 410 695 847 1410 2310 2430 3500 5730
2026-05-03 13:15 3.35 159 13500 (1984) 121 (2023) 1890 252 410 695 847 1410 2310 2430 3500 5730
2026-05-03 12:15 3.36 167 13500 (1984) 121 (2023) 1890 252 410 695 847 1410 2310 2430 3500 5730
2026-05-03 11:15 3.36 167 13500 (1984) 121 (2023) 1890 252 410 695 847 1410 2310 2430 3500 5730
2026-05-03 10:15 3.36 167 13500 (1984) 121 (2023) 1890 252 410 695 847 1410 2310 2430 3500 5730
2026-05-03 09:15 3.36 167 13500 (1984) 121 (2023) 1890 252 410 695 847 1410 2310 2430 3500 5730
2026-05-03 08:15 3.36 167 13500 (1984) 121 (2023) 1890 252 410 695 847 1410 2310 2430 3500 5730
2026-05-03 07:15 3.35 159 13500 (1984) 121 (2023) 1890 252 410 695 847 1410 2310 2430 3500 5730
2026-05-03 06:15 3.35 159 13500 (1984) 121 (2023) 1890 252 410 695 847 1410 2310 2430 3500 5730
2026-05-03 05:15 3.35 159 13500 (1984) 121 (2023) 1890 252 410 695 847 1410 2310 2430 3500 5730
2026-05-03 04:15 3.35 159 13500 (1984) 121 (2023) 1890 252 410 695 847 1410 2310 2430 3500 5730
2026-05-03 03:15 3.36 167 13500 (1984) 121 (2023) 1890 252 410 695 847 1410 2310 2430 3500 5730
2026-05-03 02:15 3.36 167 13500 (1984) 121 (2023) 1890 252 410 695 847 1410 2310 2430 3500 5730
2026-05-03 01:15 3.36 167 13500 (1984) 121 (2023) 1890 252 410 695 847 1410 2310 2430 3500 5730
2026-05-03 00:15 3.36 167 13500 (1984) 121 (2023) 1890 252 410 695 847 1410 2310 2430 3500 5730
2026-05-02 23:15 3.36 167 13500 (1984) 121 (2023) 1890 252 410 695 847 1410 2310 2430 3500 5730
2026-05-02 22:15 3.35 159 13200 (1984) 127 (2023) 1820 239 380 663 753 1410 2320 2420 3650 4790
2026-05-02 21:15 3.35 159 13200 (1984) 127 (2023) 1820 239 380 663 753 1410 2320 2420 3650 4790
2026-05-02 20:15 3.36 167 13200 (1984) 127 (2023) 1820 239 380 663 753 1410 2320 2420 3650 4790
2026-05-02 19:15 3.36 167 13200 (1984) 127 (2023) 1820 239 380 663 753 1410 2320 2420 3650 4790
2026-05-02 18:15 3.36 167 13200 (1984) 127 (2023) 1820 239 380 663 753 1410 2320 2420 3650 4790
2026-05-02 17:15 3.35 159 13200 (1984) 127 (2023) 1820 239 380 663 753 1410 2320 2420 3650 4790
2026-05-02 16:15 3.35 159 13200 (1984) 127 (2023) 1820 239 380 663 753 1410 2320 2420 3650 4790
2026-05-02 15:15 3.35 159 13200 (1984) 127 (2023) 1820 239 380 663 753 1410 2320 2420 3650 4790
2026-05-02 14:15 3.35 159 13200 (1984) 127 (2023) 1820 239 380 663 753 1410 2320 2420 3650 4790
2026-05-02 13:15 3.35 159 13200 (1984) 127 (2023) 1820 239 380 663 753 1410 2320 2420 3650 4790
2026-05-02 12:15 3.36 167 13200 (1984) 127 (2023) 1820 239 380 663 753 1410 2320 2420 3650 4790
2026-05-02 11:15 3.36 167 13200 (1984) 127 (2023) 1820 239 380 663 753 1410 2320 2420 3650 4790
2026-05-02 10:15 3.36 167 13200 (1984) 127 (2023) 1820 239 380 663 753 1410 2320 2420 3650 4790
2026-05-02 09:15 3.35 159 13200 (1984) 127 (2023) 1820 239 380 663 753 1410 2320 2420 3650 4790
2026-05-02 08:15 3.35 159 13200 (1984) 127 (2023) 1820 239 380 663 753 1410 2320 2420 3650 4790
2026-05-02 07:15 3.34 151 13200 (1984) 127 (2023) 1820 239 380 663 753 1410 2320 2420 3650 4790
2026-05-02 06:15 3.34 151 13200 (1984) 127 (2023) 1820 239 380 663 753 1410 2320 2420 3650 4790
2026-05-02 05:15 3.35 159 13200 (1984) 127 (2023) 1820 239 380 663 753 1410 2320 2420 3650 4790
2026-05-02 04:15 3.34 151 13200 (1984) 127 (2023) 1820 239 380 663 753 1410 2320 2420 3650 4790
2026-05-02 03:15 3.34 151 13200 (1984) 127 (2023) 1820 239 380 663 753 1410 2320 2420 3650 4790
2026-05-02 02:15 3.34 151 13200 (1984) 127 (2023) 1820 239 380 663 753 1410 2320 2420 3650 4790
2026-05-02 01:15 3.34 151 13200 (1984) 127 (2023) 1820 239 380 663 753 1410 2320 2420 3650 4790
2026-05-02 00:15 3.35 159 13200 (1984) 127 (2023) 1820 239 380 663 753 1410 2320 2420 3650 4790
2026-05-01 23:15 3.35 159 13200 (1984) 127 (2023) 1820 239 380 663 753 1410 2320 2420 3650 4790
2026-05-01 22:15 3.35 159 12400 (1984) 129 (2023) 1800 248 384 593 804 1460 2200 2340 3320 4810
2026-05-01 21:15 3.35 159 12400 (1984) 129 (2023) 1800 248 384 593 804 1460 2200 2340 3320 4810
2026-05-01 20:15 3.34 151 12400 (1984) 129 (2023) 1800 248 384 593 804 1460 2200 2340 3320 4810
2026-05-01 19:15 3.35 159 12400 (1984) 129 (2023) 1800 248 384 593 804 1460 2200 2340 3320 4810
2026-05-01 18:15 3.35 159 12400 (1984) 129 (2023) 1800 248 384 593 804 1460 2200 2340 3320 4810
2026-05-01 17:15 3.35 159 12400 (1984) 129 (2023) 1800 248 384 593 804 1460 2200 2340 3320 4810
2026-05-01 16:15 3.36 167 12400 (1984) 129 (2023) 1800 248 384 593 804 1460 2200 2340 3320 4810
2026-05-01 15:15 3.36 167 12400 (1984) 129 (2023) 1800 248 384 593 804 1460 2200 2340 3320 4810
2026-05-01 14:15 3.36 167 12400 (1984) 129 (2023) 1800 248 384 593 804 1460 2200 2340 3320 4810
2026-05-01 13:15 3.37 175 12400 (1984) 129 (2023) 1800 248 384 593 804 1460 2200 2340 3320 4810
2026-05-01 12:15 3.38 184 12400 (1984) 129 (2023) 1800 248 384 593 804 1460 2200 2340 3320 4810
2026-05-01 11:15 3.38 184 12400 (1984) 129 (2023) 1800 248 384 593 804 1460 2200 2340 3320 4810
2026-05-01 10:15 3.38 184 12400 (1984) 129 (2023) 1800 248 384 593 804 1460 2200 2340 3320 4810
2026-05-01 09:15 3.37 175 12400 (1984) 129 (2023) 1800 248 384 593 804 1460 2200 2340 3320 4810
2026-05-01 08:15 3.36 167 12400 (1984) 129 (2023) 1800 248 384 593 804 1460 2200 2340 3320 4810
2026-05-01 07:15 3.36 167 12400 (1984) 129 (2023) 1800 248 384 593 804 1460 2200 2340 3320 4810
2026-05-01 06:15 3.36 167 12400 (1984) 129 (2023) 1800 248 384 593 804 1460 2200 2340 3320 4810
2026-05-01 05:15 3.36 167 12400 (1984) 129 (2023) 1800 248 384 593 804 1460 2200 2340 3320 4810
2026-05-01 04:15 3.36 167 12400 (1984) 129 (2023) 1800 248 384 593 804 1460 2200 2340 3320 4810
2026-05-01 03:15 3.37 175 12400 (1984) 129 (2023) 1800 248 384 593 804 1460 2200 2340 3320 4810
2026-05-01 02:15 3.37 175 12400 (1984) 129 (2023) 1800 248 384 593 804 1460 2200 2340 3320 4810
2026-05-01 01:15 3.37 175 12400 (1984) 129 (2023) 1800 248 384 593 804 1460 2200 2340 3320 4810
2026-05-01 00:15 3.38 184 12400 (1984) 129 (2023) 1800 248 384 593 804 1460 2200 2340 3320 4810
2026-04-30 23:15 3.37 175 12400 (1984) 129 (2023) 1800 248 384 593 804 1460 2200 2340 3320 4810
2026-04-30 22:15 3.37 175 11800 (1984) 130 (2023) 1740 254 388 652 784 1460 2030 2150 3310 4910
2026-04-30 21:15 3.37 175 11800 (1984) 130 (2023) 1740 254 388 652 784 1460 2030 2150 3310 4910
2026-04-30 20:15 3.37 175 11800 (1984) 130 (2023) 1740 254 388 652 784 1460 2030 2150 3310 4910
2026-04-30 19:15 3.36 167 11800 (1984) 130 (2023) 1740 254 388 652 784 1460 2030 2150 3310 4910
2026-04-30 18:15 3.37 175 11800 (1984) 130 (2023) 1740 254 388 652 784 1460 2030 2150 3310 4910
2026-04-30 17:15 3.37 175 11800 (1984) 130 (2023) 1740 254 388 652 784 1460 2030 2150 3310 4910
2026-04-30 16:15 3.37 175 11800 (1984) 130 (2023) 1740 254 388 652 784 1460 2030 2150 3310 4910
2026-04-30 15:15 3.37 175 11800 (1984) 130 (2023) 1740 254 388 652 784 1460 2030 2150 3310 4910
2026-04-30 14:15 3.38 184 11800 (1984) 130 (2023) 1740 254 388 652 784 1460 2030 2150 3310 4910
2026-04-30 13:15 3.38 184 11800 (1984) 130 (2023) 1740 254 388 652 784 1460 2030 2150 3310 4910
2026-04-30 12:15 3.38 184 11800 (1984) 130 (2023) 1740 254 388 652 784 1460 2030 2150 3310 4910
2026-04-30 11:15 3.39 193 11800 (1984) 130 (2023) 1740 254 388 652 784 1460 2030 2150 3310 4910
2026-04-30 10:15 3.39 193 11800 (1984) 130 (2023) 1740 254 388 652 784 1460 2030 2150 3310 4910
2026-04-30 09:15 3.39 193 11800 (1984) 130 (2023) 1740 254 388 652 784 1460 2030 2150 3310 4910
2026-04-30 08:15 3.39 193 11800 (1984) 130 (2023) 1740 254 388 652 784 1460 2030 2150 3310 4910
2026-04-30 07:15 3.39 193 11800 (1984) 130 (2023) 1740 254 388 652 784 1460 2030 2150 3310 4910
2026-04-30 06:15 3.39 264 11800 (1984) 130 (2023) 1740 254 388 652 784 1460 2030 2150 3310 4910
2026-04-30 05:15 3.39 264 11800 (1984) 130 (2023) 1740 254 388 652 784 1460 2030 2150 3310 4910
2026-04-30 04:15 3.39 264 11800 (1984) 130 (2023) 1740 254 388 652 784 1460 2030 2150 3310 4910
2026-04-30 03:15 3.39 264 11800 (1984) 130 (2023) 1740 254 388 652 784 1460 2030 2150 3310 4910
2026-04-30 02:15 3.40 275 11800 (1984) 130 (2023) 1740 254 388 652 784 1460 2030 2150 3310 4910
2026-04-30 01:15 3.39 264 11800 (1984) 130 (2023) 1740 254 388 652 784 1460 2030 2150 3310 4910
2026-04-30 00:15 3.39 264 11800 (1984) 130 (2023) 1740 254 388 652 784 1460 2030 2150 3310 4910
2026-04-29 23:15 3.39 264 11800 (1984) 130 (2023) 1740 254 388 652 784 1460 2030 2150 3310 4910
2026-04-29 22:15 3.39 264 10600 (1984) 159 (2023) 1740 251 383 629 875 1420 2050 2300 3430 4800
2026-04-29 21:15 3.39 264 10600 (1984) 159 (2023) 1740 251 383 629 875 1420 2050 2300 3430 4800
2026-04-29 20:15 3.39 264 10600 (1984) 159 (2023) 1740 251 383 629 875 1420 2050 2300 3430 4800
2026-04-29 19:15 3.39 264 10600 (1984) 159 (2023) 1740 251 383 629 875 1420 2050 2300 3430 4800
2026-04-29 18:15 3.40 275 10600 (1984) 159 (2023) 1740 251 383 629 875 1420 2050 2300 3430 4800
2026-04-29 17:15 3.39 264 10600 (1984) 159 (2023) 1740 251 383 629 875 1420 2050 2300 3430 4800
2026-04-29 16:15 3.39 264 10600 (1984) 159 (2023) 1740 251 383 629 875 1420 2050 2300 3430 4800
2026-04-29 15:15 3.38 253 10600 (1984) 159 (2023) 1740 251 383 629 875 1420 2050 2300 3430 4800
2026-04-29 14:15 3.39 264 10600 (1984) 159 (2023) 1740 251 383 629 875 1420 2050 2300 3430 4800
2026-04-29 13:15 3.39 264 10600 (1984) 159 (2023) 1740 251 383 629 875 1420 2050 2300 3430 4800
2026-04-29 12:15 3.40 275 10600 (1984) 159 (2023) 1740 251 383 629 875 1420 2050 2300 3430 4800
2026-04-29 11:15 3.41 286 10600 (1984) 159 (2023) 1740 251 383 629 875 1420 2050 2300 3430 4800
2026-04-29 10:15 3.40 275 10600 (1984) 159 (2023) 1740 251 383 629 875 1420 2050 2300 3430 4800
2026-04-29 09:15 3.40 275 10600 (1984) 159 (2023) 1740 251 383 629 875 1420 2050 2300 3430 4800
2026-04-29 08:15 3.40 275 10600 (1984) 159 (2023) 1740 251 383 629 875 1420 2050 2300 3430 4800
2026-04-29 07:15 3.39 264 10600 (1984) 159 (2023) 1740 251 383 629 875 1420 2050 2300 3430 4800
2026-04-29 06:15 3.38 253 10600 (1984) 159 (2023) 1740 251 383 629 875 1420 2050 2300 3430 4800
2026-04-29 05:15 3.38 253 10600 (1984) 159 (2023) 1740 251 383 629 875 1420 2050 2300 3430 4800
2026-04-29 04:15 3.39 264 10600 (1984) 159 (2023) 1740 251 383 629 875 1420 2050 2300 3430 4800
2026-04-29 03:15 3.39 264 10600 (1984) 159 (2023) 1740 251 383 629 875 1420 2050 2300 3430 4800
2026-04-29 02:15 3.39 264 10600 (1984) 159 (2023) 1740 251 383 629 875 1420 2050 2300 3430 4800
2026-04-29 01:15 3.39 264 10600 (1984) 159 (2023) 1740 251 383 629 875 1420 2050 2300 3430 4800
2026-04-29 00:15 3.39 264 10600 (1984) 159 (2023) 1740 251 383 629 875 1420 2050 2300 3430 4800
2026-04-28 23:15 3.39 264 10600 (1984) 159 (2023) 1740 251 383 629 875 1420 2050 2300 3430 4800
2026-04-28 22:15 3.39 264 9430 (1984) 18 (1967) 1780 287 393 642 796 1500 2230 2590 3590 4570
2026-04-28 21:15 3.39 264 9430 (1984) 18 (1967) 1780 287 393 642 796 1500 2230 2590 3590 4570
2026-04-28 20:15 3.39 264 9430 (1984) 18 (1967) 1780 287 393 642 796 1500 2230 2590 3590 4570
2026-04-28 19:15 3.39 264 9430 (1984) 18 (1967) 1780 287 393 642 796 1500 2230 2590 3590 4570
2026-04-28 18:15 3.39 264 9430 (1984) 18 (1967) 1780 287 393 642 796 1500 2230 2590 3590 4570
2026-04-28 17:15 3.38 253 9430 (1984) 18 (1967) 1780 287 393 642 796 1500 2230 2590 3590 4570
2026-04-28 16:15 3.38 253 9430 (1984) 18 (1967) 1780 287 393 642 796 1500 2230 2590 3590 4570
2026-04-28 15:15 3.38 253 9430 (1984) 18 (1967) 1780 287 393 642 796 1500 2230 2590 3590 4570
2026-04-28 14:15 3.38 253 9430 (1984) 18 (1967) 1780 287 393 642 796 1500 2230 2590 3590 4570
2026-04-28 13:15 3.39 264 9430 (1984) 18 (1967) 1780 287 393 642 796 1500 2230 2590 3590 4570
2026-04-28 12:15 3.39 264 9430 (1984) 18 (1967) 1780 287 393 642 796 1500 2230 2590 3590 4570
2026-04-28 11:15 3.39 264 9430 (1984) 18 (1967) 1780 287 393 642 796 1500 2230 2590 3590 4570
2026-04-28 10:15 3.39 264 9430 (1984) 18 (1967) 1780 287 393 642 796 1500 2230 2590 3590 4570
2026-04-28 09:15 3.38 253 9430 (1984) 18 (1967) 1780 287 393 642 796 1500 2230 2590 3590 4570
2026-04-28 08:15 3.39 264 9430 (1984) 18 (1967) 1780 287 393 642 796 1500 2230 2590 3590 4570
2026-04-28 07:15 3.39 264 9430 (1984) 18 (1967) 1780 287 393 642 796 1500 2230 2590 3590 4570
2026-04-28 06:15 3.39 264 9430 (1984) 18 (1967) 1780 287 393 642 796 1500 2230 2590 3590 4570
2026-04-28 05:15 3.37 242 9430 (1984) 18 (1967) 1780 287 393 642 796 1500 2230 2590 3590 4570
2026-04-28 04:15 3.38 253 9430 (1984) 18 (1967) 1780 287 393 642 796 1500 2230 2590 3590 4570
2026-04-28 03:15 3.38 253 9430 (1984) 18 (1967) 1780 287 393 642 796 1500 2230 2590 3590 4570
2026-04-28 02:15 3.37 242 9430 (1984) 18 (1967) 1780 287 393 642 796 1500 2230 2590 3590 4570
2026-04-28 01:15 3.38 253 9430 (1984) 18 (1967) 1780 287 393 642 796 1500 2230 2590 3590 4570
2026-04-28 00:15 3.37 242 9430 (1984) 18 (1967) 1780 287 393 642 796 1500 2230 2590 3590 4570
2026-04-27 23:15 3.36 232 9430 (1984) 18 (1967) 1780 287 393 642 796 1500 2230 2590 3590 4570
2026-04-27 22:15 3.37 242 9710 (1984) 37 (1967) 1820 304 416 642 847 1530 2320 2540 3960 4780
2026-04-27 21:15 3.37 242 9710 (1984) 37 (1967) 1820 304 416 642 847 1530 2320 2540 3960 4780
2026-04-27 20:15 3.36 232 9710 (1984) 37 (1967) 1820 304 416 642 847 1530 2320 2540 3960 4780
2026-04-27 19:15 3.36 232 9710 (1984) 37 (1967) 1820 304 416 642 847 1530 2320 2540 3960 4780
2026-04-27 18:15 3.35 221 9710 (1984) 37 (1967) 1820 304 416 642 847 1530 2320 2540 3960 4780
2026-04-27 17:15 3.36 232 9710 (1984) 37 (1967) 1820 304 416 642 847 1530 2320 2540 3960 4780
2026-04-27 16:15 3.37 242 9710 (1984) 37 (1967) 1820 304 416 642 847 1530 2320 2540 3960 4780
2026-04-27 15:15 3.36 232 9710 (1984) 37 (1967) 1820 304 416 642 847 1530 2320 2540 3960 4780
2026-04-27 14:15 3.36 232 9710 (1984) 37 (1967) 1820 304 416 642 847 1530 2320 2540 3960 4780
2026-04-27 13:15 3.36 232 9710 (1984) 37 (1967) 1820 304 416 642 847 1530 2320 2540 3960 4780
2026-04-27 12:15 3.36 232 9710 (1984) 37 (1967) 1820 304 416 642 847 1530 2320 2540 3960 4780
2026-04-27 11:15 3.38 253 9710 (1984) 37 (1967) 1820 304 416 642 847 1530 2320 2540 3960 4780
2026-04-27 10:15 3.37 242 9710 (1984) 37 (1967) 1820 304 416 642 847 1530 2320 2540 3960 4780
2026-04-27 09:15 3.37 264 9710 (1984) 37 (1967) 1820 304 416 642 847 1530 2320 2540 3960 4780
2026-04-27 08:15 3.38 275 9710 (1984) 37 (1967) 1820 304 416 642 847 1530 2320 2540 3960 4780
2026-04-27 07:15 3.38 275 9710 (1984) 37 (1967) 1820 304 416 642 847 1530 2320 2540 3960 4780
2026-04-27 06:15 3.38 275 9710 (1984) 37 (1967) 1820 304 416 642 847 1530 2320 2540 3960 4780
2026-04-27 05:15 3.39 286 9710 (1984) 37 (1967) 1820 304 416 642 847 1530 2320 2540 3960 4780
2026-04-27 04:15 3.39 286 9710 (1984) 37 (1967) 1820 304 416 642 847 1530 2320 2540 3960 4780
2026-04-27 03:15 3.40 298 9710 (1984) 37 (1967) 1820 304 416 642 847 1530 2320 2540 3960 4780
2026-04-27 02:15 3.39 286 9710 (1984) 37 (1967) 1820 304 416 642 847 1530 2320 2540 3960 4780
2026-04-27 01:15 3.39 286 9710 (1984) 37 (1967) 1820 304 416 642 847 1530 2320 2540 3960 4780
2026-04-27 00:15 3.39 286 9710 (1984) 37 (1967) 1820 304 416 642 847 1530 2320 2540 3960 4780
2026-04-26 23:15 3.39 286 9710 (1984) 37 (1967) 1820 304 416 642 847 1530 2320 2540 3960 4780
2026-04-26 22:15 3.39 286 10800 (1984) 180 (2023) 1890 330 454 692 789 1520 2320 2570 3730 4730
2026-04-26 21:15 3.40 298 10800 (1984) 180 (2023) 1890 330 454 692 789 1520 2320 2570 3730 4730
2026-04-26 20:15 3.40 298 10800 (1984) 180 (2023) 1890 330 454 692 789 1520 2320 2570 3730 4730
2026-04-26 19:15 3.40 298 10800 (1984) 180 (2023) 1890 330 454 692 789 1520 2320 2570 3730 4730
2026-04-26 18:15 3.41 310 10800 (1984) 180 (2023) 1890 330 454 692 789 1520 2320 2570 3730 4730
2026-04-26 17:15 3.41 310 10800 (1984) 180 (2023) 1890 330 454 692 789 1520 2320 2570 3730 4730
2026-04-26 16:15 3.42 323 10800 (1984) 180 (2023) 1890 330 454 692 789 1520 2320 2570 3730 4730
2026-04-26 15:15 3.42 323 10800 (1984) 180 (2023) 1890 330 454 692 789 1520 2320 2570 3730 4730
2026-04-26 14:15 3.42 323 10800 (1984) 180 (2023) 1890 330 454 692 789 1520 2320 2570 3730 4730
2026-04-26 13:15 3.42 323 10800 (1984) 180 (2023) 1890 330 454 692 789 1520 2320 2570 3730 4730
2026-04-26 12:15 3.41 310 10800 (1984) 180 (2023) 1890 330 454 692 789 1520 2320 2570 3730 4730
2026-04-26 11:15 3.42 323 10800 (1984) 180 (2023) 1890 330 454 692 789 1520 2320 2570 3730 4730
2026-04-26 10:15 3.42 323 10800 (1984) 180 (2023) 1890 330 454 692 789 1520 2320 2570 3730 4730
2026-04-26 09:15 3.42 323 10800 (1984) 180 (2023) 1890 330 454 692 789 1520 2320 2570 3730 4730
2026-04-26 08:15 3.43 336 10800 (1984) 180 (2023) 1890 330 454 692 789 1520 2320 2570 3730 4730
2026-04-26 07:15 3.43 336 10800 (1984) 180 (2023) 1890 330 454 692 789 1520 2320 2570 3730 4730
2026-04-26 06:15 3.44 349 10800 (1984) 180 (2023) 1890 330 454 692 789 1520 2320 2570 3730 4730
2026-04-26 05:15 3.41 310 10800 (1984) 180 (2023) 1890 330 454 692 789 1520 2320 2570 3730 4730
2026-04-26 04:15 3.43 336 10800 (1984) 180 (2023) 1890 330 454 692 789 1520 2320 2570 3730 4730
2026-04-26 03:15 3.44 349 10800 (1984) 180 (2023) 1890 330 454 692 789 1520 2320 2570 3730 4730
2026-04-26 02:15 3.43 336 10800 (1984) 180 (2023) 1890 330 454 692 789 1520 2320 2570 3730 4730
2026-04-26 01:15 3.44 349 10800 (1984) 180 (2023) 1890 330 454 692 789 1520 2320 2570 3730 4730
2026-04-26 00:15 3.43 336 10800 (1984) 180 (2023) 1890 330 454 692 789 1520 2320 2570 3730 4730
2026-04-25 23:15 3.43 336 10800 (1984) 180 (2023) 1890 330 454 692 789 1520 2320 2570 3730 4730
2026-04-25 22:15 3.43 336 11800 (1984) 181 (2023) 1890 354 548 744 853 1530 2490 2740 3500 4620
2026-04-25 21:15 3.42 323 11800 (1984) 181 (2023) 1890 354 548 744 853 1530 2490 2740 3500 4620
2026-04-25 20:15 3.42 323 11800 (1984) 181 (2023) 1890 354 548 744 853 1530 2490 2740 3500 4620
2026-04-25 19:15 3.41 310 11800 (1984) 181 (2023) 1890 354 548 744 853 1530 2490 2740 3500 4620
2026-04-25 18:15 3.41 310 11800 (1984) 181 (2023) 1890 354 548 744 853 1530 2490 2740 3500 4620
2026-04-25 17:15 3.41 310 11800 (1984) 181 (2023) 1890 354 548 744 853 1530 2490 2740 3500 4620
2026-04-25 16:15 3.38 275 11800 (1984) 181 (2023) 1890 354 548 744 853 1530 2490 2740 3500 4620
2026-04-25 15:15 3.37 264 11800 (1984) 181 (2023) 1890 354 548 744 853 1530 2490 2740 3500 4620
2026-04-25 14:15 3.34 232 11800 (1984) 181 (2023) 1890 354 548 744 853 1530 2490 2740 3500 4620
2026-04-25 13:15 3.31 202 11800 (1984) 181 (2023) 1890 354 548 744 853 1530 2490 2740 3500 4620
2026-04-25 12:15 3.31 202 11800 (1984) 181 (2023) 1890 354 548 744 853 1530 2490 2740 3500 4620
2026-04-25 11:15 3.32 212 11800 (1984) 181 (2023) 1890 354 548 744 853 1530 2490 2740 3500 4620
2026-04-25 10:15 3.30 193 11800 (1984) 181 (2023) 1890 354 548 744 853 1530 2490 2740 3500 4620
2026-04-25 09:15 3.30 193 11800 (1984) 181 (2023) 1890 354 548 744 853 1530 2490 2740 3500 4620
2026-04-25 08:15 3.31 202 11800 (1984) 181 (2023) 1890 354 548 744 853 1530 2490 2740 3500 4620
2026-04-25 07:15 3.31 202 11800 (1984) 181 (2023) 1890 354 548 744 853 1530 2490 2740 3500 4620
2026-04-25 06:15 3.30 193 11800 (1984) 181 (2023) 1890 354 548 744 853 1530 2490 2740 3500 4620
2026-04-25 05:15 3.31 202 11800 (1984) 181 (2023) 1890 354 548 744 853 1530 2490 2740 3500 4620
2026-04-25 04:15 3.30 193 11800 (1984) 181 (2023) 1890 354 548 744 853 1530 2490 2740 3500 4620
2026-04-25 03:15 3.31 202 11800 (1984) 181 (2023) 1890 354 548 744 853 1530 2490 2740 3500 4620
2026-04-25 02:15 3.31 202 11800 (1984) 181 (2023) 1890 354 548 744 853 1530 2490 2740 3500 4620
2026-04-25 01:15 3.31 202 11800 (1984) 181 (2023) 1890 354 548 744 853 1530 2490 2740 3500 4620
2026-04-25 00:15 3.32 212 11800 (1984) 181 (2023) 1890 354 548 744 853 1530 2490 2740 3500 4620
2026-04-24 23:15 3.32 212 11800 (1984) 181 (2023) 1890 354 548 744 853 1530 2490 2740 3500 4620
2026-04-24 22:15 3.32 212 12100 (1984) 170 (2023) 1900 365 482 800 852 1530 2590 2840 3380 4510
2026-04-24 21:15 3.31 202 12100 (1984) 170 (2023) 1900 365 482 800 852 1530 2590 2840 3380 4510
2026-04-24 20:15 3.32 212 12100 (1984) 170 (2023) 1900 365 482 800 852 1530 2590 2840 3380 4510
2026-04-24 19:15 3.32 212 12100 (1984) 170 (2023) 1900 365 482 800 852 1530 2590 2840 3380 4510
2026-04-24 18:15 3.32 212 12100 (1984) 170 (2023) 1900 365 482 800 852 1530 2590 2840 3380 4510
2026-04-24 17:15 3.32 212 12100 (1984) 170 (2023) 1900 365 482 800 852 1530 2590 2840 3380 4510
2026-04-24 16:15 3.32 212 12100 (1984) 170 (2023) 1900 365 482 800 852 1530 2590 2840 3380 4510
2026-04-24 15:15 3.33 221 12100 (1984) 170 (2023) 1900 365 482 800 852 1530 2590 2840 3380 4510
2026-04-24 14:15 3.32 212 12100 (1984) 170 (2023) 1900 365 482 800 852 1530 2590 2840 3380 4510
2026-04-24 13:15 3.33 221 12100 (1984) 170 (2023) 1900 365 482 800 852 1530 2590 2840 3380 4510
2026-04-24 12:15 3.33 221 12100 (1984) 170 (2023) 1900 365 482 800 852 1530 2590 2840 3380 4510
2026-04-24 11:15 3.33 221 12100 (1984) 170 (2023) 1900 365 482 800 852 1530 2590 2840 3380 4510
2026-04-24 10:15 3.32 212 12100 (1984) 170 (2023) 1900 365 482 800 852 1530 2590 2840 3380 4510
2026-04-24 09:15 3.33 221 12100 (1984) 170 (2023) 1900 365 482 800 852 1530 2590 2840 3380 4510
2026-04-24 08:15 3.33 221 12100 (1984) 170 (2023) 1900 365 482 800 852 1530 2590 2840 3380 4510
2026-04-24 07:15 3.32 212 12100 (1984) 170 (2023) 1900 365 482 800 852 1530 2590 2840 3380 4510
2026-04-24 06:15 3.32 212 12100 (1984) 170 (2023) 1900 365 482 800 852 1530 2590 2840 3380 4510
2026-04-24 05:15 3.32 212 12100 (1984) 170 (2023) 1900 365 482 800 852 1530 2590 2840 3380 4510
2026-04-24 04:15 3.32 212 12100 (1984) 170 (2023) 1900 365 482 800 852 1530 2590 2840 3380 4510
2026-04-24 03:15 3.33 221 12100 (1984) 170 (2023) 1900 365 482 800 852 1530 2590 2840 3380 4510
2026-04-24 02:15 3.33 221 12100 (1984) 170 (2023) 1900 365 482 800 852 1530 2590 2840 3380 4510
2026-04-24 01:15 3.33 221 12100 (1984) 170 (2023) 1900 365 482 800 852 1530 2590 2840 3380 4510
2026-04-24 00:15 3.33 221 12100 (1984) 170 (2023) 1900 365 482 800 852 1530 2590 2840 3380 4510
2026-04-23 23:15 3.33 221 12100 (1984) 170 (2023) 1900 365 482 800 852 1530 2590 2840 3380 4510
2026-04-23 22:15 3.33 221 13100 (1984) 171 (2023) 1910 362 501 856 900 1560 2480 2820 3540 4320
2026-04-23 21:15 3.33 221 13100 (1984) 171 (2023) 1910 362 501 856 900 1560 2480 2820 3540 4320
2026-04-23 20:15 3.33 221 13100 (1984) 171 (2023) 1910 362 501 856 900 1560 2480 2820 3540 4320
2026-04-23 19:15 3.34 232 13100 (1984) 171 (2023) 1910 362 501 856 900 1560 2480 2820 3540 4320
2026-04-23 18:15 3.34 232 13100 (1984) 171 (2023) 1910 362 501 856 900 1560 2480 2820 3540 4320
2026-04-23 17:15 3.34 232 13100 (1984) 171 (2023) 1910 362 501 856 900 1560 2480 2820 3540 4320
2026-04-23 16:15 3.35 242 13100 (1984) 171 (2023) 1910 362 501 856 900 1560 2480 2820 3540 4320
2026-04-23 15:15 3.35 242 13100 (1984) 171 (2023) 1910 362 501 856 900 1560 2480 2820 3540 4320
2026-04-23 14:15 3.36 253 13100 (1984) 171 (2023) 1910 362 501 856 900 1560 2480 2820 3540 4320
2026-04-23 13:15 3.35 242 13100 (1984) 171 (2023) 1910 362 501 856 900 1560 2480 2820 3540 4320
2026-04-23 12:15 3.36 253 13100 (1984) 171 (2023) 1910 362 501 856 900 1560 2480 2820 3540 4320
2026-04-23 11:15 3.36 253 13100 (1984) 171 (2023) 1910 362 501 856 900 1560 2480 2820 3540 4320
2026-04-23 10:15 3.36 253 13100 (1984) 171 (2023) 1910 362 501 856 900 1560 2480 2820 3540 4320
2026-04-23 09:15 3.35 242 13100 (1984) 171 (2023) 1910 362 501 856 900 1560 2480 2820 3540 4320
2026-04-23 08:15 3.36 253 13100 (1984) 171 (2023) 1910 362 501 856 900 1560 2480 2820 3540 4320
2026-04-23 07:15 3.35 242 13100 (1984) 171 (2023) 1910 362 501 856 900 1560 2480 2820 3540 4320
2026-04-23 06:15 3.35 242 13100 (1984) 171 (2023) 1910 362 501 856 900 1560 2480 2820 3540 4320
2026-04-23 05:15 3.34 232 13100 (1984) 171 (2023) 1910 362 501 856 900 1560 2480 2820 3540 4320
2026-04-23 04:15 3.34 232 13100 (1984) 171 (2023) 1910 362 501 856 900 1560 2480 2820 3540 4320
2026-04-23 03:15 3.34 232 13100 (1984) 171 (2023) 1910 362 501 856 900 1560 2480 2820 3540 4320
2026-04-23 02:15 3.34 232 13100 (1984) 171 (2023) 1910 362 501 856 900 1560 2480 2820 3540 4320
2026-04-23 01:15 3.34 232 13100 (1984) 171 (2023) 1910 362 501 856 900 1560 2480 2820 3540 4320
2026-04-23 00:15 3.36 253 13100 (1984) 171 (2023) 1910 362 501 856 900 1560 2480 2820 3540 4320
2026-04-22 23:15 3.35 242 13100 (1984) 171 (2023) 1910 362 501 856 900 1560 2480 2820 3540 4320
2026-04-22 22:15 3.35 242 13800 (1984) 186 (2023) 1890 367 521 787 900 1560 2310 2540 3640 4350
2026-04-22 21:15 3.35 242 13800 (1984) 186 (2023) 1890 367 521 787 900 1560 2310 2540 3640 4350
2026-04-22 20:15 3.35 242 13800 (1984) 186 (2023) 1890 367 521 787 900 1560 2310 2540 3640 4350
2026-04-22 19:15 3.35 242 13800 (1984) 186 (2023) 1890 367 521 787 900 1560 2310 2540 3640 4350
2026-04-22 18:15 3.36 253 13800 (1984) 186 (2023) 1890 367 521 787 900 1560 2310 2540 3640 4350
2026-04-22 17:15 3.36 253 13800 (1984) 186 (2023) 1890 367 521 787 900 1560 2310 2540 3640 4350
2026-04-22 16:15 3.35 242 13800 (1984) 186 (2023) 1890 367 521 787 900 1560 2310 2540 3640 4350
2026-04-22 15:15 3.35 242 13800 (1984) 186 (2023) 1890 367 521 787 900 1560 2310 2540 3640 4350
2026-04-22 14:15 3.37 264 13800 (1984) 186 (2023) 1890 367 521 787 900 1560 2310 2540 3640 4350
2026-04-22 13:15 3.36 253 13800 (1984) 186 (2023) 1890 367 521 787 900 1560 2310 2540 3640 4350
2026-04-22 12:15 3.35 242 13800 (1984) 186 (2023) 1890 367 521 787 900 1560 2310 2540 3640 4350
2026-04-22 11:15 3.36 253 13800 (1984) 186 (2023) 1890 367 521 787 900 1560 2310 2540 3640 4350
2026-04-22 10:15 3.37 264 13800 (1984) 186 (2023) 1890 367 521 787 900 1560 2310 2540 3640 4350
2026-04-22 09:15 3.37 264 13800 (1984) 186 (2023) 1890 367 521 787 900 1560 2310 2540 3640 4350
2026-04-22 08:15 3.36 253 13800 (1984) 186 (2023) 1890 367 521 787 900 1560 2310 2540 3640 4350
2026-04-22 07:15 3.36 253 13800 (1984) 186 (2023) 1890 367 521 787 900 1560 2310 2540 3640 4350
2026-04-22 06:15 3.36 253 13800 (1984) 186 (2023) 1890 367 521 787 900 1560 2310 2540 3640 4350
2026-04-22 05:15 3.36 253 13800 (1984) 186 (2023) 1890 367 521 787 900 1560 2310 2540 3640 4350
2026-04-22 04:15 3.36 253 13800 (1984) 186 (2023) 1890 367 521 787 900 1560 2310 2540 3640 4350
2026-04-22 03:15 3.36 253 13800 (1984) 186 (2023) 1890 367 521 787 900 1560 2310 2540 3640 4350
2026-04-22 02:15 3.36 253 13800 (1984) 186 (2023) 1890 367 521 787 900 1560 2310 2540 3640 4350
2026-04-22 01:15 3.37 264 13800 (1984) 186 (2023) 1890 367 521 787 900 1560 2310 2540 3640 4350
2026-04-22 00:15 3.37 264 13800 (1984) 186 (2023) 1890 367 521 787 900 1560 2310 2540 3640 4350
2026-04-21 23:15 3.37 264 13800 (1984) 186 (2023) 1890 367 521 787 900 1560 2310 2540 3640 4350
2026-04-21 22:15 3.37 264 11900 (1984) 205 (2023) 1960 345 531 848 962 1630 2340 2510 3870 4520
2026-04-21 21:15 3.38 275 11900 (1984) 205 (2023) 1960 345 531 848 962 1630 2340 2510 3870 4520
2026-04-21 20:15 3.38 275 11900 (1984) 205 (2023) 1960 345 531 848 962 1630 2340 2510 3870 4520
2026-04-21 19:15 3.38 275 11900 (1984) 205 (2023) 1960 345 531 848 962 1630 2340 2510 3870 4520
2026-04-21 18:15 3.38 275 11900 (1984) 205 (2023) 1960 345 531 848 962 1630 2340 2510 3870 4520
2026-04-21 17:15 3.38 275 11900 (1984) 205 (2023) 1960 345 531 848 962 1630 2340 2510 3870 4520
2026-04-21 16:15 3.39 286 11900 (1984) 205 (2023) 1960 345 531 848 962 1630 2340 2510 3870 4520
2026-04-21 15:15 3.39 286 11900 (1984) 205 (2023) 1960 345 531 848 962 1630 2340 2510 3870 4520
2026-04-21 14:15 3.39 286 11900 (1984) 205 (2023) 1960 345 531 848 962 1630 2340 2510 3870 4520
2026-04-21 13:15 3.40 298 11900 (1984) 205 (2023) 1960 345 531 848 962 1630 2340 2510 3870 4520
2026-04-21 12:15 3.40 298 11900 (1984) 205 (2023) 1960 345 531 848 962 1630 2340 2510 3870 4520
2026-04-21 11:15 3.40 298 11900 (1984) 205 (2023) 1960 345 531 848 962 1630 2340 2510 3870 4520
2026-04-21 10:15 3.39 286 11900 (1984) 205 (2023) 1960 345 531 848 962 1630 2340 2510 3870 4520
2026-04-21 09:15 3.40 298 11900 (1984) 205 (2023) 1960 345 531 848 962 1630 2340 2510 3870 4520
2026-04-21 08:15 3.39 286 11900 (1984) 205 (2023) 1960 345 531 848 962 1630 2340 2510 3870 4520
2026-04-21 07:15 3.38 275 11900 (1984) 205 (2023) 1960 345 531 848 962 1630 2340 2510 3870 4520
2026-04-21 06:15 3.38 275 11900 (1984) 205 (2023) 1960 345 531 848 962 1630 2340 2510 3870 4520
2026-04-21 05:15 3.38 275 11900 (1984) 205 (2023) 1960 345 531 848 962 1630 2340 2510 3870 4520
2026-04-21 04:15 3.38 275 11900 (1984) 205 (2023) 1960 345 531 848 962 1630 2340 2510 3870 4520
2026-04-21 03:15 3.38 275 11900 (1984) 205 (2023) 1960 345 531 848 962 1630 2340 2510 3870 4520
2026-04-21 02:15 3.38 275 11900 (1984) 205 (2023) 1960 345 531 848 962 1630 2340 2510 3870 4520
2026-04-21 01:15 3.38 275 11900 (1984) 205 (2023) 1960 345 531 848 962 1630 2340 2510 3870 4520
2026-04-21 00:15 3.39 286 11900 (1984) 205 (2023) 1960 345 531 848 962 1630 2340 2510 3870 4520
2026-04-20 23:15 3.38 275 11900 (1984) 205 (2023) 1960 345 531 848 962 1630 2340 2510 3870 4520
2026-04-20 22:15 3.38 275 8150 (1984) 211 (2022) 1920 247 536 856 955 1600 2340 2690 3970 4770
2026-04-20 21:15 3.38 275 8150 (1984) 211 (2022) 1920 247 536 856 955 1600 2340 2690 3970 4770
2026-04-20 20:15 3.38 275 8150 (1984) 211 (2022) 1920 247 536 856 955 1600 2340 2690 3970 4770
2026-04-20 19:15 3.38 275 8150 (1984) 211 (2022) 1920 247 536 856 955 1600 2340 2690 3970 4770
2026-04-20 18:15 3.38 275 8150 (1984) 211 (2022) 1920 247 536 856 955 1600 2340 2690 3970 4770
2026-04-20 17:15 3.38 275 8150 (1984) 211 (2022) 1920 247 536 856 955 1600 2340 2690 3970 4770
2026-04-20 16:15 3.38 275 8150 (1984) 211 (2022) 1920 247 536 856 955 1600 2340 2690 3970 4770
2026-04-20 15:15 3.38 275 8150 (1984) 211 (2022) 1920 247 536 856 955 1600 2340 2690 3970 4770
2026-04-20 14:15 3.38 275 8150 (1984) 211 (2022) 1920 247 536 856 955 1600 2340 2690 3970 4770
2026-04-20 13:15 3.38 275 8150 (1984) 211 (2022) 1920 247 536 856 955 1600 2340 2690 3970 4770
2026-04-20 12:15 3.39 286 8150 (1984) 211 (2022) 1920 247 536 856 955 1600 2340 2690 3970 4770
2026-04-20 11:15 3.40 298 8150 (1984) 211 (2022) 1920 247 536 856 955 1600 2340 2690 3970 4770
2026-04-20 10:15 3.40 298 8150 (1984) 211 (2022) 1920 247 536 856 955 1600 2340 2690 3970 4770
2026-04-20 09:15 3.39 286 8150 (1984) 211 (2022) 1920 247 536 856 955 1600 2340 2690 3970 4770
2026-04-20 08:15 3.39 286 8150 (1984) 211 (2022) 1920 247 536 856 955 1600 2340 2690 3970 4770
2026-04-20 07:15 3.38 275 8150 (1984) 211 (2022) 1920 247 536 856 955 1600 2340 2690 3970 4770
2026-04-20 06:15 3.38 275 8150 (1984) 211 (2022) 1920 247 536 856 955 1600 2340 2690 3970 4770
2026-04-20 05:15 3.38 275 8150 (1984) 211 (2022) 1920 247 536 856 955 1600 2340 2690 3970 4770
2026-04-20 04:15 3.37 264 8150 (1984) 211 (2022) 1920 247 536 856 955 1600 2340 2690 3970 4770
2026-04-20 03:15 3.36 253 8150 (1984) 211 (2022) 1920 247 536 856 955 1600 2340 2690 3970 4770
2026-04-20 02:15 3.36 253 8150 (1984) 211 (2022) 1920 247 536 856 955 1600 2340 2690 3970 4770
2026-04-20 01:15 3.36 253 8150 (1984) 211 (2022) 1920 247 536 856 955 1600 2340 2690 3970 4770
2026-04-20 00:15 3.36 253 8150 (1984) 211 (2022) 1920 247 536 856 955 1600 2340 2690 3970 4770
2026-04-19 23:15 3.36 253 8150 (1984) 211 (2022) 1920 247 536 856 955 1600 2340 2690 3970 4770
2026-04-19 22:15 3.36 253 7110 (1984) 102 (1942) 1890 266 488 874 1000 1620 2250 2420 3980 4810
2026-04-19 21:15 3.36 253 7110 (1984) 102 (1942) 1890 266 488 874 1000 1620 2250 2420 3980 4810
2026-04-19 20:15 3.35 242 7110 (1984) 102 (1942) 1890 266 488 874 1000 1620 2250 2420 3980 4810
2026-04-19 19:15 3.36 253 7110 (1984) 102 (1942) 1890 266 488 874 1000 1620 2250 2420 3980 4810
2026-04-19 18:15 3.35 242 7110 (1984) 102 (1942) 1890 266 488 874 1000 1620 2250 2420 3980 4810
2026-04-19 17:15 3.36 253 7110 (1984) 102 (1942) 1890 266 488 874 1000 1620 2250 2420 3980 4810
2026-04-19 16:15 3.36 253 7110 (1984) 102 (1942) 1890 266 488 874 1000 1620 2250 2420 3980 4810
2026-04-19 15:15 3.37 264 7110 (1984) 102 (1942) 1890 266 488 874 1000 1620 2250 2420 3980 4810
2026-04-19 14:15 3.36 253 7110 (1984) 102 (1942) 1890 266 488 874 1000 1620 2250 2420 3980 4810
2026-04-19 13:15 3.37 264 7110 (1984) 102 (1942) 1890 266 488 874 1000 1620 2250 2420 3980 4810
2026-04-19 12:15 3.37 264 7110 (1984) 102 (1942) 1890 266 488 874 1000 1620 2250 2420 3980 4810
2026-04-19 11:15 3.38 275 7110 (1984) 102 (1942) 1890 266 488 874 1000 1620 2250 2420 3980 4810
2026-04-19 10:15 3.38 275 7110 (1984) 102 (1942) 1890 266 488 874 1000 1620 2250 2420 3980 4810
2026-04-19 09:15 3.38 275 7110 (1984) 102 (1942) 1890 266 488 874 1000 1620 2250 2420 3980 4810
2026-04-19 08:15 3.38 275 7110 (1984) 102 (1942) 1890 266 488 874 1000 1620 2250 2420 3980 4810
2026-04-19 07:15 3.36 253 7110 (1984) 102 (1942) 1890 266 488 874 1000 1620 2250 2420 3980 4810
2026-04-19 06:15 3.37 264 7110 (1984) 102 (1942) 1890 266 488 874 1000 1620 2250 2420 3980 4810
2026-04-19 05:15 3.37 264 7110 (1984) 102 (1942) 1890 266 488 874 1000 1620 2250 2420 3980 4810
2026-04-19 04:15 3.36 253 7110 (1984) 102 (1942) 1890 266 488 874 1000 1620 2250 2420 3980 4810
2026-04-19 03:15 3.36 253 7110 (1984) 102 (1942) 1890 266 488 874 1000 1620 2250 2420 3980 4810
2026-04-19 02:15 3.36 253 7110 (1984) 102 (1942) 1890 266 488 874 1000 1620 2250 2420 3980 4810
2026-04-19 01:15 3.36 253 7110 (1984) 102 (1942) 1890 266 488 874 1000 1620 2250 2420 3980 4810
2026-04-19 00:15 3.36 253 7110 (1984) 102 (1942) 1890 266 488 874 1000 1620 2250 2420 3980 4810
2026-04-18 23:15 3.36 253 7110 (1984) 102 (1942) 1890 266 488 874 1000 1620 2250 2420 3980 4810
2026-04-18 22:15 3.37 264 7580 (1984) 122 (1942) 1890 381 490 767 953 1720 2210 2500 3810 4850
2026-04-18 21:15 3.37 264 7580 (1984) 122 (1942) 1890 381 490 767 953 1720 2210 2500 3810 4850
2026-04-18 20:15 3.37 264 7580 (1984) 122 (1942) 1890 381 490 767 953 1720 2210 2500 3810 4850
2026-04-18 19:15 3.37 264 7580 (1984) 122 (1942) 1890 381 490 767 953 1720 2210 2500 3810 4850
2026-04-18 18:15 3.36 253 7580 (1984) 122 (1942) 1890 381 490 767 953 1720 2210 2500 3810 4850
2026-04-18 17:15 3.37 264 7580 (1984) 122 (1942) 1890 381 490 767 953 1720 2210 2500 3810 4850
2026-04-18 16:15 3.37 264 7580 (1984) 122 (1942) 1890 381 490 767 953 1720 2210 2500 3810 4850
2026-04-18 15:15 3.37 264 7580 (1984) 122 (1942) 1890 381 490 767 953 1720 2210 2500 3810 4850
2026-04-18 14:15 3.37 264 7580 (1984) 122 (1942) 1890 381 490 767 953 1720 2210 2500 3810 4850
2026-04-18 13:15 3.38 275 7580 (1984) 122 (1942) 1890 381 490 767 953 1720 2210 2500 3810 4850
2026-04-18 12:15 3.38 275 7580 (1984) 122 (1942) 1890 381 490 767 953 1720 2210 2500 3810 4850
2026-04-18 11:15 3.38 275 7580 (1984) 122 (1942) 1890 381 490 767 953 1720 2210 2500 3810 4850
2026-04-18 10:15 3.38 275 7580 (1984) 122 (1942) 1890 381 490 767 953 1720 2210 2500 3810 4850
2026-04-18 09:15 3.37 264 7580 (1984) 122 (1942) 1890 381 490 767 953 1720 2210 2500 3810 4850
2026-04-18 08:15 3.37 264 7580 (1984) 122 (1942) 1890 381 490 767 953 1720 2210 2500 3810 4850
2026-04-18 07:15 3.37 264 7580 (1984) 122 (1942) 1890 381 490 767 953 1720 2210 2500 3810 4850
2026-04-18 06:15 3.37 264 7580 (1984) 122 (1942) 1890 381 490 767 953 1720 2210 2500 3810 4850
2026-04-18 05:15 3.36 253 7580 (1984) 122 (1942) 1890 381 490 767 953 1720 2210 2500 3810 4850
2026-04-18 04:15 3.36 253 7580 (1984) 122 (1942) 1890 381 490 767 953 1720 2210 2500 3810 4850
2026-04-18 03:15 3.36 253 7580 (1984) 122 (1942) 1890 381 490 767 953 1720 2210 2500 3810 4850
2026-04-18 02:15 3.37 264 7580 (1984) 122 (1942) 1890 381 490 767 953 1720 2210 2500 3810 4850
2026-04-18 01:15 3.37 264 7580 (1984) 122 (1942) 1890 381 490 767 953 1720 2210 2500 3810 4850
2026-04-18 00:15 3.37 264 7580 (1984) 122 (1942) 1890 381 490 767 953 1720 2210 2500 3810 4850
2026-04-17 23:15 3.37 264 7580 (1984) 122 (1942) 1890 381 490 767 953 1720 2210 2500 3810 4850
2026-04-17 22:15 3.37 264 8000 (1984) 146 (1942) 1910 378 569 818 967 1700 2310 2620 3680 4750
2026-04-17 21:15 3.36 253 8000 (1984) 146 (1942) 1910 378 569 818 967 1700 2310 2620 3680 4750
2026-04-17 20:15 3.36 253 8000 (1984) 146 (1942) 1910 378 569 818 967 1700 2310 2620 3680 4750
2026-04-17 19:15 3.36 253 8000 (1984) 146 (1942) 1910 378 569 818 967 1700 2310 2620 3680 4750
2026-04-17 18:15 3.36 253 8000 (1984) 146 (1942) 1910 378 569 818 967 1700 2310 2620 3680 4750
2026-04-17 17:15 3.37 264 8000 (1984) 146 (1942) 1910 378 569 818 967 1700 2310 2620 3680 4750
2026-04-17 16:15 3.38 275 8000 (1984) 146 (1942) 1910 378 569 818 967 1700 2310 2620 3680 4750
2026-04-17 15:15 3.37 264 8000 (1984) 146 (1942) 1910 378 569 818 967 1700 2310 2620 3680 4750
2026-04-17 14:15 3.37 264 8000 (1984) 146 (1942) 1910 378 569 818 967 1700 2310 2620 3680 4750
2026-04-17 13:15 3.37 264 8000 (1984) 146 (1942) 1910 378 569 818 967 1700 2310 2620 3680 4750
2026-04-17 12:15 3.37 264 8000 (1984) 146 (1942) 1910 378 569 818 967 1700 2310 2620 3680 4750
2026-04-17 11:15 3.38 275 8000 (1984) 146 (1942) 1910 378 569 818 967 1700 2310 2620 3680 4750
2026-04-17 10:15 3.38 275 8000 (1984) 146 (1942) 1910 378 569 818 967 1700 2310 2620 3680 4750
2026-04-17 09:15 3.37 264 8000 (1984) 146 (1942) 1910 378 569 818 967 1700 2310 2620 3680 4750
2026-04-17 08:15 3.36 253 8000 (1984) 146 (1942) 1910 378 569 818 967 1700 2310 2620 3680 4750
2026-04-17 07:15 3.36 253 8000 (1984) 146 (1942) 1910 378 569 818 967 1700 2310 2620 3680 4750
2026-04-17 06:15 3.37 264 8000 (1984) 146 (1942) 1910 378 569 818 967 1700 2310 2620 3680 4750
2026-04-17 05:15 3.37 264 8000 (1984) 146 (1942) 1910 378 569 818 967 1700 2310 2620 3680 4750
2026-04-17 04:15 3.38 275 8000 (1984) 146 (1942) 1910 378 569 818 967 1700 2310 2620 3680 4750
2026-04-17 03:15 3.38 275 8000 (1984) 146 (1942) 1910 378 569 818 967 1700 2310 2620 3680 4750
2026-04-17 02:15 3.38 275 8000 (1984) 146 (1942) 1910 378 569 818 967 1700 2310 2620 3680 4750
2026-04-17 01:15 3.39 286 8000 (1984) 146 (1942) 1910 378 569 818 967 1700 2310 2620 3680 4750
2026-04-17 00:15 3.38 275 8000 (1984) 146 (1942) 1910 378 569 818 967 1700 2310 2620 3680 4750
2026-04-16 23:15 3.38 275 8000 (1984) 146 (1942) 1910 378 569 818 967 1700 2310 2620 3680 4750
2026-04-16 22:15 3.38 275 8090 (1984) 174 (1942) 1900 455 590 820 1070 1600 2240 2580 3520 5000
2026-04-16 21:15 3.38 275 8090 (1984) 174 (1942) 1900 455 590 820 1070 1600 2240 2580 3520 5000
2026-04-16 20:15 3.39 286 8090 (1984) 174 (1942) 1900 455 590 820 1070 1600 2240 2580 3520 5000
2026-04-16 19:15 3.39 286 8090 (1984) 174 (1942) 1900 455 590 820 1070 1600 2240 2580 3520 5000
2026-04-16 18:15 3.39 286 8090 (1984) 174 (1942) 1900 455 590 820 1070 1600 2240 2580 3520 5000
2026-04-16 17:15 3.39 286 8090 (1984) 174 (1942) 1900 455 590 820 1070 1600 2240 2580 3520 5000
2026-04-16 16:15 3.39 286 8090 (1984) 174 (1942) 1900 455 590 820 1070 1600 2240 2580 3520 5000
2026-04-16 15:15 3.39 286 8090 (1984) 174 (1942) 1900 455 590 820 1070 1600 2240 2580 3520 5000
2026-04-16 14:15 3.41 310 8090 (1984) 174 (1942) 1900 455 590 820 1070 1600 2240 2580 3520 5000
2026-04-16 13:15 3.41 310 8090 (1984) 174 (1942) 1900 455 590 820 1070 1600 2240 2580 3520 5000
2026-04-16 12:15 3.41 310 8090 (1984) 174 (1942) 1900 455 590 820 1070 1600 2240 2580 3520 5000
2026-04-16 11:15 3.41 310 8090 (1984) 174 (1942) 1900 455 590 820 1070 1600 2240 2580 3520 5000
2026-04-16 10:15 3.41 310 8090 (1984) 174 (1942) 1900 455 590 820 1070 1600 2240 2580 3520 5000
2026-04-16 09:15 3.41 310 8090 (1984) 174 (1942) 1900 455 590 820 1070 1600 2240 2580 3520 5000
2026-04-16 08:15 3.42 323 8090 (1984) 174 (1942) 1900 455 590 820 1070 1600 2240 2580 3520 5000
2026-04-16 07:15 3.41 310 8090 (1984) 174 (1942) 1900 455 590 820 1070 1600 2240 2580 3520 5000
2026-04-16 06:15 3.41 310 8090 (1984) 174 (1942) 1900 455 590 820 1070 1600 2240 2580 3520 5000
2026-04-16 05:15 3.41 310 8090 (1984) 174 (1942) 1900 455 590 820 1070 1600 2240 2580 3520 5000
2026-04-16 04:15 3.41 310 8090 (1984) 174 (1942) 1900 455 590 820 1070 1600 2240 2580 3520 5000
2026-04-16 03:15 3.41 310 8090 (1984) 174 (1942) 1900 455 590 820 1070 1600 2240 2580 3520 5000
2026-04-16 02:15 3.41 310 8090 (1984) 174 (1942) 1900 455 590 820 1070 1600 2240 2580 3520 5000
2026-04-16 01:15 3.41 310 8090 (1984) 174 (1942) 1900 455 590 820 1070 1600 2240 2580 3520 5000
2026-04-16 00:15 3.41 310 8090 (1984) 174 (1942) 1900 455 590 820 1070 1600 2240 2580 3520 5000
2026-04-15 23:15 3.41 310 8090 (1984) 174 (1942) 1900 455 590 820 1070 1600 2240 2580 3520 5000
2026-04-15 22:15 3.41 310 7540 (1974) 217 (1942) 1910 523 626 892 1020 1680 2210 2490 3790 4790
2026-04-15 21:15 3.41 310 7540 (1974) 217 (1942) 1910 523 626 892 1020 1680 2210 2490 3790 4790
2026-04-15 20:15 3.41 310 7540 (1974) 217 (1942) 1910 523 626 892 1020 1680 2210 2490 3790 4790
2026-04-15 19:15 3.40 298 7540 (1974) 217 (1942) 1910 523 626 892 1020 1680 2210 2490 3790 4790
2026-04-15 18:15 3.40 298 7540 (1974) 217 (1942) 1910 523 626 892 1020 1680 2210 2490 3790 4790
2026-04-15 17:15 3.40 298 7540 (1974) 217 (1942) 1910 523 626 892 1020 1680 2210 2490 3790 4790
2026-04-15 16:15 3.39 286 7540 (1974) 217 (1942) 1910 523 626 892 1020 1680 2210 2490 3790 4790
2026-04-15 15:15 3.39 286 7540 (1974) 217 (1942) 1910 523 626 892 1020 1680 2210 2490 3790 4790
2026-04-15 14:15 3.40 298 7540 (1974) 217 (1942) 1910 523 626 892 1020 1680 2210 2490 3790 4790
2026-04-15 13:15 3.40 298 7540 (1974) 217 (1942) 1910 523 626 892 1020 1680 2210 2490 3790 4790
2026-04-15 12:15 3.40 298 7540 (1974) 217 (1942) 1910 523 626 892 1020 1680 2210 2490 3790 4790
2026-04-15 11:15 3.39 286 7540 (1974) 217 (1942) 1910 523 626 892 1020 1680 2210 2490 3790 4790
2026-04-15 10:15 3.39 286 7540 (1974) 217 (1942) 1910 523 626 892 1020 1680 2210 2490 3790 4790
2026-04-15 09:15 3.39 286 7540 (1974) 217 (1942) 1910 523 626 892 1020 1680 2210 2490 3790 4790
2026-04-15 08:15 3.39 286 7540 (1974) 217 (1942) 1910 523 626 892 1020 1680 2210 2490 3790 4790
2026-04-15 07:15 3.39 286 7540 (1974) 217 (1942) 1910 523 626 892 1020 1680 2210 2490 3790 4790
2026-04-15 06:15 3.39 286 7540 (1974) 217 (1942) 1910 523 626 892 1020 1680 2210 2490 3790 4790
2026-04-15 05:15 3.39 286 7540 (1974) 217 (1942) 1910 523 626 892 1020 1680 2210 2490 3790 4790
2026-04-15 04:15 3.40 298 7540 (1974) 217 (1942) 1910 523 626 892 1020 1680 2210 2490 3790 4790
2026-04-15 03:15 3.39 286 7540 (1974) 217 (1942) 1910 523 626 892 1020 1680 2210 2490 3790 4790
2026-04-15 02:15 3.39 286 7540 (1974) 217 (1942) 1910 523 626 892 1020 1680 2210 2490 3790 4790
2026-04-15 01:15 3.39 286 7540 (1974) 217 (1942) 1910 523 626 892 1020 1680 2210 2490 3790 4790
2026-04-15 00:15 3.39 286 7540 (1974) 217 (1942) 1910 523 626 892 1020 1680 2210 2490 3790 4790
2026-04-14 23:15 3.40 298 7540 (1974) 217 (1942) 1910 523 626 892 1020 1680 2210 2490 3790 4790
2026-04-14 22:15 3.40 298 8320 (1984) 281 (2023) 1960 480 633 966 1100 1700 2320 2510 3650 4390
2026-04-14 21:15 3.40 298 8320 (1984) 281 (2023) 1960 480 633 966 1100 1700 2320 2510 3650 4390
2026-04-14 20:15 3.40 298 8320 (1984) 281 (2023) 1960 480 633 966 1100 1700 2320 2510 3650 4390
2026-04-14 19:15 3.40 298 8320 (1984) 281 (2023) 1960 480 633 966 1100 1700 2320 2510 3650 4390
2026-04-14 18:15 3.40 298 8320 (1984) 281 (2023) 1960 480 633 966 1100 1700 2320 2510 3650 4390
2026-04-14 17:15 3.40 298 8320 (1984) 281 (2023) 1960 480 633 966 1100 1700 2320 2510 3650 4390
2026-04-14 16:15 3.41 310 8320 (1984) 281 (2023) 1960 480 633 966 1100 1700 2320 2510 3650 4390
2026-04-14 15:15 3.41 310 8320 (1984) 281 (2023) 1960 480 633 966 1100 1700 2320 2510 3650 4390
2026-04-14 14:15 3.42 323 8320 (1984) 281 (2023) 1960 480 633 966 1100 1700 2320 2510 3650 4390
2026-04-14 13:15 3.41 310 8320 (1984) 281 (2023) 1960 480 633 966 1100 1700 2320 2510 3650 4390
2026-04-14 12:15 3.42 323 8320 (1984) 281 (2023) 1960 480 633 966 1100 1700 2320 2510 3650 4390
2026-04-14 11:15 3.42 323 8320 (1984) 281 (2023) 1960 480 633 966 1100 1700 2320 2510 3650 4390
2026-04-14 10:15 3.42 323 8320 (1984) 281 (2023) 1960 480 633 966 1100 1700 2320 2510 3650 4390
2026-04-14 09:15 3.42 323 8320 (1984) 281 (2023) 1960 480 633 966 1100 1700 2320 2510 3650 4390
2026-04-14 08:15 3.42 323 8320 (1984) 281 (2023) 1960 480 633 966 1100 1700 2320 2510 3650 4390
2026-04-14 07:15 3.41 310 8320 (1984) 281 (2023) 1960 480 633 966 1100 1700 2320 2510 3650 4390
2026-04-14 06:15 3.41 310 8320 (1984) 281 (2023) 1960 480 633 966 1100 1700 2320 2510 3650 4390
2026-04-14 05:15 3.41 310 8320 (1984) 281 (2023) 1960 480 633 966 1100 1700 2320 2510 3650 4390
2026-04-14 04:15 3.41 310 8320 (1984) 281 (2023) 1960 480 633 966 1100 1700 2320 2510 3650 4390
2026-04-14 03:15 3.41 310 8320 (1984) 281 (2023) 1960 480 633 966 1100 1700 2320 2510 3650 4390
2026-04-14 02:15 3.42 323 8320 (1984) 281 (2023) 1960 480 633 966 1100 1700 2320 2510 3650 4390
2026-04-14 01:15 3.41 310 8320 (1984) 281 (2023) 1960 480 633 966 1100 1700 2320 2510 3650 4390
2026-04-14 00:15 3.41 310 8320 (1984) 281 (2023) 1960 480 633 966 1100 1700 2320 2510 3650 4390
2026-04-13 23:15 3.41 310 8320 (1984) 281 (2023) 1960 480 633 966 1100 1700 2320 2510 3650 4390
2026-04-13 22:15 3.41 310 9040 (1984) 285 (2023) 1960 404 688 930 1060 1760 2300 2460 3460 4490
2026-04-13 21:15 3.42 323 9040 (1984) 285 (2023) 1960 404 688 930 1060 1760 2300 2460 3460 4490
2026-04-13 20:15 3.42 323 9040 (1984) 285 (2023) 1960 404 688 930 1060 1760 2300 2460 3460 4490
2026-04-13 19:15 3.42 323 9040 (1984) 285 (2023) 1960 404 688 930 1060 1760 2300 2460 3460 4490
2026-04-13 18:15 3.42 323 9040 (1984) 285 (2023) 1960 404 688 930 1060 1760 2300 2460 3460 4490
2026-04-13 17:15 3.42 323 9040 (1984) 285 (2023) 1960 404 688 930 1060 1760 2300 2460 3460 4490
2026-04-13 16:15 3.42 323 9040 (1984) 285 (2023) 1960 404 688 930 1060 1760 2300 2460 3460 4490
2026-04-13 15:15 3.42 323 9040 (1984) 285 (2023) 1960 404 688 930 1060 1760 2300 2460 3460 4490
2026-04-13 14:15 3.43 336 9040 (1984) 285 (2023) 1960 404 688 930 1060 1760 2300 2460 3460 4490
2026-04-13 13:15 3.43 336 9040 (1984) 285 (2023) 1960 404 688 930 1060 1760 2300 2460 3460 4490
2026-04-13 12:15 3.43 336 9040 (1984) 285 (2023) 1960 404 688 930 1060 1760 2300 2460 3460 4490
2026-04-13 11:15 3.43 336 9040 (1984) 285 (2023) 1960 404 688 930 1060 1760 2300 2460 3460 4490
2026-04-13 10:15 3.43 336 9040 (1984) 285 (2023) 1960 404 688 930 1060 1760 2300 2460 3460 4490
2026-04-13 09:15 3.43 336 9040 (1984) 285 (2023) 1960 404 688 930 1060 1760 2300 2460 3460 4490
2026-04-13 08:15 3.43 336 9040 (1984) 285 (2023) 1960 404 688 930 1060 1760 2300 2460 3460 4490
2026-04-13 07:15 3.43 336 9040 (1984) 285 (2023) 1960 404 688 930 1060 1760 2300 2460 3460 4490
2026-04-13 06:15 3.44 349 9040 (1984) 285 (2023) 1960 404 688 930 1060 1760 2300 2460 3460 4490
2026-04-13 05:15 3.43 336 9040 (1984) 285 (2023) 1960 404 688 930 1060 1760 2300 2460 3460 4490
2026-04-13 04:15 3.44 349 9040 (1984) 285 (2023) 1960 404 688 930 1060 1760 2300 2460 3460 4490
2026-04-13 03:15 3.43 336 9040 (1984) 285 (2023) 1960 404 688 930 1060 1760 2300 2460 3460 4490
2026-04-13 02:15 3.43 336 9040 (1984) 285 (2023) 1960 404 688 930 1060 1760 2300 2460 3460 4490
2026-04-13 01:15 3.44 349 9040 (1984) 285 (2023) 1960 404 688 930 1060 1760 2300 2460 3460 4490
2026-04-13 00:15 3.43 336 9040 (1984) 285 (2023) 1960 404 688 930 1060 1760 2300 2460 3460 4490
2026-04-12 23:15 3.44 349 9040 (1984) 285 (2023) 1960 404 688 930 1060 1760 2300 2460 3460 4490
2026-04-12 22:15 3.44 349 9670 (1984) 239 (2025) 1930 327 648 899 984 1720 2320 2580 3230 4600
2026-04-12 21:15 3.44 349 9670 (1984) 239 (2025) 1930 327 648 899 984 1720 2320 2580 3230 4600
2026-04-12 20:15 3.44 349 9670 (1984) 239 (2025) 1930 327 648 899 984 1720 2320 2580 3230 4600
2026-04-12 19:15 3.44 349 9670 (1984) 239 (2025) 1930 327 648 899 984 1720 2320 2580 3230 4600
2026-04-12 18:15 3.45 362 9670 (1984) 239 (2025) 1930 327 648 899 984 1720 2320 2580 3230 4600
2026-04-12 17:15 3.46 376 9670 (1984) 239 (2025) 1930 327 648 899 984 1720 2320 2580 3230 4600
2026-04-12 16:15 3.46 376 9670 (1984) 239 (2025) 1930 327 648 899 984 1720 2320 2580 3230 4600
2026-04-12 15:15 3.46 376 9670 (1984) 239 (2025) 1930 327 648 899 984 1720 2320 2580 3230 4600
2026-04-12 14:15 3.46 376 9670 (1984) 239 (2025) 1930 327 648 899 984 1720 2320 2580 3230 4600
2026-04-12 13:15 3.46 376 9670 (1984) 239 (2025) 1930 327 648 899 984 1720 2320 2580 3230 4600
2026-04-12 12:15 3.46 376 9670 (1984) 239 (2025) 1930 327 648 899 984 1720 2320 2580 3230 4600
2026-04-12 11:15 3.46 376 9670 (1984) 239 (2025) 1930 327 648 899 984 1720 2320 2580 3230 4600
2026-04-12 10:15 3.46 376 9670 (1984) 239 (2025) 1930 327 648 899 984 1720 2320 2580 3230 4600
2026-04-12 09:15 3.46 376 9670 (1984) 239 (2025) 1930 327 648 899 984 1720 2320 2580 3230 4600
2026-04-12 08:15 3.46 376 9670 (1984) 239 (2025) 1930 327 648 899 984 1720 2320 2580 3230 4600
2026-04-12 07:15 3.46 376 9670 (1984) 239 (2025) 1930 327 648 899 984 1720 2320 2580 3230 4600
2026-04-12 06:15 3.45 362 9670 (1984) 239 (2025) 1930 327 648 899 984 1720 2320 2580 3230 4600
2026-04-12 05:15 3.45 362 9670 (1984) 239 (2025) 1930 327 648 899 984 1720 2320 2580 3230 4600
2026-04-12 04:15 3.45 362 9670 (1984) 239 (2025) 1930 327 648 899 984 1720 2320 2580 3230 4600
2026-04-12 03:15 3.45 362 9670 (1984) 239 (2025) 1930 327 648 899 984 1720 2320 2580 3230 4600
2026-04-12 02:15 3.45 362 9670 (1984) 239 (2025) 1930 327 648 899 984 1720 2320 2580 3230 4600
2026-04-12 01:15 3.45 362 9670 (1984) 239 (2025) 1930 327 648 899 984 1720 2320 2580 3230 4600
2026-04-12 00:15 3.45 362 9670 (1984) 239 (2025) 1930 327 648 899 984 1720 2320 2580 3230 4600
2026-04-11 23:15 3.44 349 9670 (1984) 239 (2025) 1930 327 648 899 984 1720 2320 2580 3230 4600
2026-04-11 22:15 3.45 362 9820 (1984) 245 (2025) 1960 314 687 911 1100 1770 2220 2520 3340 4730
2026-04-11 21:15 3.44 349 9820 (1984) 245 (2025) 1960 314 687 911 1100 1770 2220 2520 3340 4730
2026-04-11 20:15 3.45 362 9820 (1984) 245 (2025) 1960 314 687 911 1100 1770 2220 2520 3340 4730
2026-04-11 19:15 3.45 362 9820 (1984) 245 (2025) 1960 314 687 911 1100 1770 2220 2520 3340 4730
2026-04-11 18:15 3.45 362 9820 (1984) 245 (2025) 1960 314 687 911 1100 1770 2220 2520 3340 4730
2026-04-11 17:15 3.45 362 9820 (1984) 245 (2025) 1960 314 687 911 1100 1770 2220 2520 3340 4730
2026-04-11 16:15 3.45 362 9820 (1984) 245 (2025) 1960 314 687 911 1100 1770 2220 2520 3340 4730
2026-04-11 15:15 3.46 376 9820 (1984) 245 (2025) 1960 314 687 911 1100 1770 2220 2520 3340 4730
2026-04-11 14:15 3.46 376 9820 (1984) 245 (2025) 1960 314 687 911 1100 1770 2220 2520 3340 4730
2026-04-11 13:15 3.45 362 9820 (1984) 245 (2025) 1960 314 687 911 1100 1770 2220 2520 3340 4730
2026-04-11 12:15 3.46 376 9820 (1984) 245 (2025) 1960 314 687 911 1100 1770 2220 2520 3340 4730
2026-04-11 11:15 3.46 376 9820 (1984) 245 (2025) 1960 314 687 911 1100 1770 2220 2520 3340 4730
2026-04-11 10:15 3.46 376 9820 (1984) 245 (2025) 1960 314 687 911 1100 1770 2220 2520 3340 4730
2026-04-11 09:15 3.45 362 9820 (1984) 245 (2025) 1960 314 687 911 1100 1770 2220 2520 3340 4730
2026-04-11 08:15 3.44 349 9820 (1984) 245 (2025) 1960 314 687 911 1100 1770 2220 2520 3340 4730
2026-04-11 07:15 3.44 349 9820 (1984) 245 (2025) 1960 314 687 911 1100 1770 2220 2520 3340 4730
2026-04-11 06:15 3.44 349 9820 (1984) 245 (2025) 1960 314 687 911 1100 1770 2220 2520 3340 4730
2026-04-11 05:15 3.44 349 9820 (1984) 245 (2025) 1960 314 687 911 1100 1770 2220 2520 3340 4730
2026-04-11 04:15 3.44 349 9820 (1984) 245 (2025) 1960 314 687 911 1100 1770 2220 2520 3340 4730
2026-04-11 03:15 3.44 349 9820 (1984) 245 (2025) 1960 314 687 911 1100 1770 2220 2520 3340 4730
2026-04-11 02:15 3.44 349 9820 (1984) 245 (2025) 1960 314 687 911 1100 1770 2220 2520 3340 4730
2026-04-11 01:15 3.43 336 9820 (1984) 245 (2025) 1960 314 687 911 1100 1770 2220 2520 3340 4730
2026-04-11 00:15 3.43 336 9820 (1984) 245 (2025) 1960 314 687 911 1100 1770 2220 2520 3340 4730
2026-04-10 23:15 3.43 336 9820 (1984) 245 (2025) 1960 314 687 911 1100 1770 2220 2520 3340 4730
2026-04-10 22:15 3.43 336 9960 (1984) 277 (2025) 1980 373 729 896 1080 1710 2310 2550 3350 5060
2026-04-10 21:15 3.43 336 9960 (1984) 277 (2025) 1980 373 729 896 1080 1710 2310 2550 3350 5060
2026-04-10 20:15 3.43 336 9960 (1984) 277 (2025) 1980 373 729 896 1080 1710 2310 2550 3350 5060
2026-04-10 19:15 3.44 349 9960 (1984) 277 (2025) 1980 373 729 896 1080 1710 2310 2550 3350 5060
2026-04-10 18:15 3.44 349 9960 (1984) 277 (2025) 1980 373 729 896 1080 1710 2310 2550 3350 5060
2026-04-10 17:15 3.44 349 9960 (1984) 277 (2025) 1980 373 729 896 1080 1710 2310 2550 3350 5060
2026-04-10 16:15 3.44 349 9960 (1984) 277 (2025) 1980 373 729 896 1080 1710 2310 2550 3350 5060
2026-04-10 15:15 3.45 362 9960 (1984) 277 (2025) 1980 373 729 896 1080 1710 2310 2550 3350 5060
2026-04-10 14:15 3.44 349 9960 (1984) 277 (2025) 1980 373 729 896 1080 1710 2310 2550 3350 5060
2026-04-10 13:15 3.44 349 9960 (1984) 277 (2025) 1980 373 729 896 1080 1710 2310 2550 3350 5060
2026-04-10 12:15 3.44 349 9960 (1984) 277 (2025) 1980 373 729 896 1080 1710 2310 2550 3350 5060
2026-04-10 11:15 3.44 349 9960 (1984) 277 (2025) 1980 373 729 896 1080 1710 2310 2550 3350 5060
2026-04-10 10:15 3.45 362 9960 (1984) 277 (2025) 1980 373 729 896 1080 1710 2310 2550 3350 5060
2026-04-10 09:15 3.45 362 9960 (1984) 277 (2025) 1980 373 729 896 1080 1710 2310 2550 3350 5060
2026-04-10 08:15 3.45 362 9960 (1984) 277 (2025) 1980 373 729 896 1080 1710 2310 2550 3350 5060
2026-04-10 07:15 3.45 362 9960 (1984) 277 (2025) 1980 373 729 896 1080 1710 2310 2550 3350 5060
2026-04-10 06:15 3.45 362 9960 (1984) 277 (2025) 1980 373 729 896 1080 1710 2310 2550 3350 5060
2026-04-10 05:15 3.45 362 9960 (1984) 277 (2025) 1980 373 729 896 1080 1710 2310 2550 3350 5060
2026-04-10 04:15 3.45 362 9960 (1984) 277 (2025) 1980 373 729 896 1080 1710 2310 2550 3350 5060
2026-04-10 03:15 3.45 362 9960 (1984) 277 (2025) 1980 373 729 896 1080 1710 2310 2550 3350 5060
2026-04-10 02:15 3.45 362 9960 (1984) 277 (2025) 1980 373 729 896 1080 1710 2310 2550 3350 5060
2026-04-10 01:15 3.46 376 9960 (1984) 277 (2025) 1980 373 729 896 1080 1710 2310 2550 3350 5060
2026-04-10 00:15 3.46 376 9960 (1984) 277 (2025) 1980 373 729 896 1080 1710 2310 2550 3350 5060
2026-04-09 23:15 3.46 376 9960 (1984) 277 (2025) 1980 373 729 896 1080 1710 2310 2550 3350 5060
2026-04-09 22:15 3.47 390 10000 (1984) 303 (2004) 1970 416 701 878 1050 1630 2310 2460 3500 4930
2026-04-09 21:15 3.48 405 10000 (1984) 303 (2004) 1970 416 701 878 1050 1630 2310 2460 3500 4930
2026-04-09 20:15 3.48 405 10000 (1984) 303 (2004) 1970 416 701 878 1050 1630 2310 2460 3500 4930
2026-04-09 19:15 3.48 405 10000 (1984) 303 (2004) 1970 416 701 878 1050 1630 2310 2460 3500 4930
2026-04-09 18:15 3.47 390 10000 (1984) 303 (2004) 1970 416 701 878 1050 1630 2310 2460 3500 4930
2026-04-09 17:15 3.48 405 10000 (1984) 303 (2004) 1970 416 701 878 1050 1630 2310 2460 3500 4930
2026-04-09 16:15 3.49 420 10000 (1984) 303 (2004) 1970 416 701 878 1050 1630 2310 2460 3500 4930
2026-04-09 15:15 3.49 420 10000 (1984) 303 (2004) 1970 416 701 878 1050 1630 2310 2460 3500 4930
2026-04-09 14:15 3.49 420 10000 (1984) 303 (2004) 1970 416 701 878 1050 1630 2310 2460 3500 4930
2026-04-09 13:15 3.48 405 10000 (1984) 303 (2004) 1970 416 701 878 1050 1630 2310 2460 3500 4930
2026-04-09 12:15 3.50 435 10000 (1984) 303 (2004) 1970 416 701 878 1050 1630 2310 2460 3500 4930
2026-04-09 11:15 3.49 420 10000 (1984) 303 (2004) 1970 416 701 878 1050 1630 2310 2460 3500 4930
2026-04-09 10:15 3.49 420 10000 (1984) 303 (2004) 1970 416 701 878 1050 1630 2310 2460 3500 4930
2026-04-09 09:15 3.49 420 10000 (1984) 303 (2004) 1970 416 701 878 1050 1630 2310 2460 3500 4930
2026-04-09 08:15 3.50 435 10000 (1984) 303 (2004) 1970 416 701 878 1050 1630 2310 2460 3500 4930
2026-04-09 07:15 3.50 435 10000 (1984) 303 (2004) 1970 416 701 878 1050 1630 2310 2460 3500 4930
2026-04-09 06:15 3.49 420 10000 (1984) 303 (2004) 1970 416 701 878 1050 1630 2310 2460 3500 4930
2026-04-09 05:15 3.49 420 10000 (1984) 303 (2004) 1970 416 701 878 1050 1630 2310 2460 3500 4930
2026-04-09 04:15 3.50 435 10000 (1984) 303 (2004) 1970 416 701 878 1050 1630 2310 2460 3500 4930
2026-04-09 03:15 3.49 420 10000 (1984) 303 (2004) 1970 416 701 878 1050 1630 2310 2460 3500 4930
2026-04-09 02:15 3.50 435 10000 (1984) 303 (2004) 1970 416 701 878 1050 1630 2310 2460 3500 4930
2026-04-09 01:15 3.50 435 10000 (1984) 303 (2004) 1970 416 701 878 1050 1630 2310 2460 3500 4930
2026-04-09 00:15 3.51 450 10000 (1984) 303 (2004) 1970 416 701 878 1050 1630 2310 2460 3500 4930
2026-04-08 23:15 3.50 435 10000 (1984) 303 (2004) 1970 416 701 878 1050 1630 2310 2460 3500 4930
2026-04-08 22:15 3.51 450 10100 (1984) 275 (1942) 1970 407 692 895 968 1590 2340 2500 3550 4900
2026-04-08 21:15 3.50 435 10100 (1984) 275 (1942) 1970 407 692 895 968 1590 2340 2500 3550 4900
2026-04-08 20:15 3.51 450 10100 (1984) 275 (1942) 1970 407 692 895 968 1590 2340 2500 3550 4900
2026-04-08 19:15 3.51 450 10100 (1984) 275 (1942) 1970 407 692 895 968 1590 2340 2500 3550 4900
2026-04-08 18:15 3.53 482 10100 (1984) 275 (1942) 1970 407 692 895 968 1590 2340 2500 3550 4900
2026-04-08 17:15 3.52 466 10100 (1984) 275 (1942) 1970 407 692 895 968 1590 2340 2500 3550 4900
2026-04-08 16:15 3.52 466 10100 (1984) 275 (1942) 1970 407 692 895 968 1590 2340 2500 3550 4900
2026-04-08 15:15 3.53 482 10100 (1984) 275 (1942) 1970 407 692 895 968 1590 2340 2500 3550 4900
2026-04-08 14:15 3.53 482 10100 (1984) 275 (1942) 1970 407 692 895 968 1590 2340 2500 3550 4900
2026-04-08 13:15 3.55 516 10100 (1984) 275 (1942) 1970 407 692 895 968 1590 2340 2500 3550 4900
2026-04-08 12:15 3.55 516 10100 (1984) 275 (1942) 1970 407 692 895 968 1590 2340 2500 3550 4900
2026-04-08 11:15 3.55 516 10100 (1984) 275 (1942) 1970 407 692 895 968 1590 2340 2500 3550 4900
2026-04-08 10:15 3.56 533 10100 (1984) 275 (1942) 1970 407 692 895 968 1590 2340 2500 3550 4900
2026-04-08 09:15 3.57 551 10100 (1984) 275 (1942) 1970 407 692 895 968 1590 2340 2500 3550 4900
2026-04-08 08:15 3.57 551 10100 (1984) 275 (1942) 1970 407 692 895 968 1590 2340 2500 3550 4900
2026-04-08 07:15 3.57 551 10100 (1984) 275 (1942) 1970 407 692 895 968 1590 2340 2500 3550 4900
2026-04-08 06:15 3.58 569 10100 (1984) 275 (1942) 1970 407 692 895 968 1590 2340 2500 3550 4900
2026-04-08 05:15 3.59 587 10100 (1984) 275 (1942) 1970 407 692 895 968 1590 2340 2500 3550 4900
2026-04-08 04:15 3.59 587 10100 (1984) 275 (1942) 1970 407 692 895 968 1590 2340 2500 3550 4900
2026-04-08 03:15 3.59 587 10100 (1984) 275 (1942) 1970 407 692 895 968 1590 2340 2500 3550 4900
2026-04-08 02:15 3.60 606 10100 (1984) 275 (1942) 1970 407 692 895 968 1590 2340 2500 3550 4900
2026-04-08 01:15 3.60 606 10100 (1984) 275 (1942) 1970 407 692 895 968 1590 2340 2500 3550 4900
2026-04-08 00:15 3.60 606 10100 (1984) 275 (1942) 1970 407 692 895 968 1590 2340 2500 3550 4900
2026-04-07 23:15 3.62 642 10100 (1984) 275 (1942) 1970 407 692 895 968 1590 2340 2500 3550 4900
2026-04-07 22:15 3.62 642 10300 (1984) 259 (1942) 2000 425 783 896 997 1610 2410 2750 3400 4880
2026-04-07 21:15 3.63 660 10300 (1984) 259 (1942) 2000 425 783 896 997 1610 2410 2750 3400 4880
2026-04-07 20:15 3.64 678 10300 (1984) 259 (1942) 2000 425 783 896 997 1610 2410 2750 3400 4880
2026-04-07 19:15 3.63 660 10300 (1984) 259 (1942) 2000 425 783 896 997 1610 2410 2750 3400 4880
2026-04-07 18:15 3.64 678 10300 (1984) 259 (1942) 2000 425 783 896 997 1610 2410 2750 3400 4880
2026-04-07 17:15 3.64 678 10300 (1984) 259 (1942) 2000 425 783 896 997 1610 2410 2750 3400 4880
2026-04-07 16:15 3.65 696 10300 (1984) 259 (1942) 2000 425 783 896 997 1610 2410 2750 3400 4880
2026-04-07 15:15 3.66 714 10300 (1984) 259 (1942) 2000 425 783 896 997 1610 2410 2750 3400 4880
2026-04-07 14:15 3.66 714 10300 (1984) 259 (1942) 2000 425 783 896 997 1610 2410 2750 3400 4880
2026-04-07 13:15 3.67 733 10300 (1984) 259 (1942) 2000 425 783 896 997 1610 2410 2750 3400 4880
2026-04-07 12:15 3.68 752 10300 (1984) 259 (1942) 2000 425 783 896 997 1610 2410 2750 3400 4880
2026-04-07 11:15 3.68 752 10300 (1984) 259 (1942) 2000 425 783 896 997 1610 2410 2750 3400 4880
2026-04-07 10:15 3.70 790 10300 (1984) 259 (1942) 2000 425 783 896 997 1610 2410 2750 3400 4880
2026-04-07 09:15 3.71 810 10300 (1984) 259 (1942) 2000 425 783 896 997 1610 2410 2750 3400 4880
2026-04-07 08:15 3.73 848 10300 (1984) 259 (1942) 2000 425 783 896 997 1610 2410 2750 3400 4880
2026-04-07 07:15 3.77 771 10300 (1984) 259 (1942) 2000 425 783 896 997 1610 2410 2750 3400 4880
2026-04-07 06:15 3.77 771 10300 (1984) 259 (1942) 2000 425 783 896 997 1610 2410 2750 3400 4880
2026-04-07 05:15 3.78 790 10300 (1984) 259 (1942) 2000 425 783 896 997 1610 2410 2750 3400 4880
2026-04-07 04:15 3.80 829 10300 (1984) 259 (1942) 2000 425 783 896 997 1610 2410 2750 3400 4880
2026-04-07 03:15 3.82 867 10300 (1984) 259 (1942) 2000 425 783 896 997 1610 2410 2750 3400 4880
2026-04-07 02:15 3.84 907 10300 (1984) 259 (1942) 2000 425 783 896 997 1610 2410 2750 3400 4880
2026-04-07 01:15 3.87 968 10300 (1984) 259 (1942) 2000 425 783 896 997 1610 2410 2750 3400 4880
2026-04-07 00:15 3.88 989 10300 (1984) 259 (1942) 2000 425 783 896 997 1610 2410 2750 3400 4880
2026-04-06 23:15 3.92 1070 10300 (1984) 259 (1942) 2000 425 783 896 997 1610 2410 2750 3400 4880

A total of 732 rows are displayed for years 1942 through 2025.